Time,TemperatureF,DewpointF,PressureIn,WindDirection,WindDirectionDegrees,WindSpeedMPH,WindSpeedGustMPH,Humidity,HourlyPrecipIn,Conditions,Clouds,dailyrainin,SoftwareType,DateUTC
2013-12-22 00:02:00,65.5,62.5,29.98,SSW,210,2.0,3.0,90,0.00,,,0.00,Wunderground v.1.15,2013-12-22 05:02:00,
2013-12-22 00:04:00,65.5,62.5,29.98,SSW,208,1.0,3.0,90,0.00,,,0.00,Wunderground v.1.15,2013-12-22 05:04:00,
2013-12-22 00:05:00,65.5,62.5,29.98,SW,235,1.0,3.0,90,0.00,,,0.00,Wunderground v.1.15,2013-12-22 05:05:00,
2013-12-22 00:06:00,65.4,62.7,29.98,SSW,203,5.0,5.0,91,0.00,,,0.00,Wunderground v.1.15,2013-12-22 05:06:00,
2013-12-22 00:08:00,65.4,62.7,29.98,SW,225,5.0,5.0,91,0.00,,,0.00,Wunderground v.1.15,2013-12-22 05:08:00,
2013-12-22 00:12:00,65.6,62.9,29.98,SW,215,2.0,2.0,91,0.00,,,0.00,Wunderground v.1.15,2013-12-22 05:12:00,
2013-12-22 00:14:00,65.6,62.9,29.98,SE,131,1.0,2.0,91,0.00,,,0.00,Wunderground v.1.15,2013-12-22 05:14:00,
2013-12-22 00:16:00,65.6,62.9,29.98,SW,217,2.0,3.0,91,0.00,,,0.00,Wunderground v.1.15,2013-12-22 05:16:00,
2013-12-22 00:18:00,65.6,62.9,29.98,SW,232,0.0,3.0,91,0.00,,,0.00,Wunderground v.1.15,2013-12-22 05:18:00,
2013-12-22 00:19:00,65.6,62.9,29.98,SSW,212,1.0,3.0,91,0.00,,,0.00,Wunderground v.1.15,2013-12-22 05:19:00,
2013-12-22 00:20:00,65.6,62.9,29.98,WSW,239,3.0,3.0,91,0.00,,,0.00,Wunderground v.1.15,2013-12-22 05:20:00,
2013-12-22 00:22:00,65.6,62.9,29.98,South,173,5.0,5.0,91,0.00,,,0.00,Wunderground v.1.15,2013-12-22 05:22:00,
2013-12-22 00:24:00,65.7,63.0,29.98,East,101,2.0,5.0,91,0.00,,,0.00,Wunderground v.1.15,2013-12-22 05:24:00,
2013-12-22 00:25:00,65.7,63.0,29.98,ENE,68,1.0,5.0,91,0.00,,,0.00,Wunderground v.1.15,2013-12-22 05:25:00,
2013-12-22 00:26:00,65.7,63.0,29.98,WSW,257,1.0,5.0,91,0.00,,,0.00,Wunderground v.1.15,2013-12-22 05:26:00,
2013-12-22 00:28:00,65.6,62.9,29.98,SSW,194,1.0,5.0,91,0.00,,,0.00,Wunderground v.1.15,2013-12-22 05:28:00,
2013-12-22 00:31:00,65.6,62.9,29.98,WSW,249,2.0,3.0,91,0.00,,,0.00,Wunderground v.1.15,2013-12-22 05:31:00,
2013-12-22 00:33:00,65.6,62.9,29.98,SSW,207,6.0,6.0,91,0.00,,,0.00,Wunderground v.1.15,2013-12-22 05:33:00,
2013-12-22 00:34:00,65.6,62.9,29.98,SSW,204,3.0,6.0,91,0.00,,,0.00,Wunderground v.1.15,2013-12-22 05:34:00,
2013-12-22 00:35:00,65.6,62.9,29.98,SSW,201,3.0,6.0,91,0.00,,,0.00,Wunderground v.1.15,2013-12-22 05:35:00,
2013-12-22 00:37:00,65.7,63.0,29.98,SSW,208,3.0,6.0,91,0.00,,,0.00,Wunderground v.1.15,2013-12-22 05:37:00,
2013-12-22 00:41:00,65.7,63.0,29.98,SW,233,3.0,6.0,91,0.00,,,0.00,Wunderground v.1.15,2013-12-22 05:41:00,
2013-12-22 00:42:00,65.7,63.0,29.98,SSW,198,1.0,6.0,91,0.00,,,0.00,Wunderground v.1.15,2013-12-22 05:42:00,
2013-12-22 00:43:00,65.7,63.0,29.97,WNW,297,1.0,6.0,91,0.00,,,0.00,Wunderground v.1.15,2013-12-22 05:43:00,
2013-12-22 00:46:00,65.7,63.0,29.97,East,89,1.0,9.0,91,0.00,,,0.00,Wunderground v.1.15,2013-12-22 05:46:00,
2013-12-22 00:48:00,65.7,63.0,29.97,SSW,203,2.0,9.0,91,0.00,,,0.00,Wunderground v.1.15,2013-12-22 05:48:00,
2013-12-22 00:49:00,65.7,63.0,29.97,SW,235,3.0,9.0,91,0.00,,,0.00,Wunderground v.1.15,2013-12-22 05:49:00,
2013-12-22 00:53:00,65.8,63.1,29.97,ESE,113,2.0,4.0,91,0.00,,,0.00,Wunderground v.1.15,2013-12-22 05:53:00,
2013-12-22 00:54:00,65.8,63.1,29.97,WSW,238,4.0,4.0,91,0.00,,,0.00,Wunderground v.1.15,2013-12-22 05:54:00,
2013-12-22 00:55:00,65.8,63.1,29.97,South,180,0.0,4.0,91,0.00,,,0.00,Wunderground v.1.15,2013-12-22 05:55:00,
2013-12-22 00:56:00,65.8,63.1,29.97,SW,214,2.0,4.0,91,0.00,,,0.00,Wunderground v.1.15,2013-12-22 05:56:00,
2013-12-22 00:58:00,65.8,63.1,29.97,SSW,212,1.0,4.0,91,0.00,,,0.00,Wunderground v.1.15,2013-12-22 05:58:00,
2013-12-22 00:59:00,65.9,63.2,29.97,SSW,212,1.0,4.0,91,0.00,,,0.00,Wunderground v.1.15,2013-12-22 05:59:00,
2013-12-22 01:02:00,65.8,63.1,29.97,South,184,1.0,2.0,91,0.00,,,0.00,Wunderground v.1.15,2013-12-22 06:02:00,
2013-12-22 01:03:00,65.8,63.1,29.97,SSW,195,2.0,2.0,91,0.00,,,0.00,Wunderground v.1.15,2013-12-22 06:03:00,
2013-12-22 01:04:00,65.8,63.1,29.97,SSW,205,4.0,4.0,91,0.00,,,0.00,Wunderground v.1.15,2013-12-22 06:04:00,
2013-12-22 01:07:00,65.9,63.2,29.97,SW,216,3.0,5.0,91,0.00,,,0.00,Wunderground v.1.15,2013-12-22 06:07:00,
2013-12-22 01:08:00,66.0,63.3,29.97,South,179,3.0,5.0,91,0.00,,,0.00,Wunderground v.1.15,2013-12-22 06:08:00,
2013-12-22 01:11:00,66.0,63.3,29.97,SSW,213,6.0,6.0,91,0.00,,,0.00,Wunderground v.1.15,2013-12-22 06:11:00,
2013-12-22 01:12:00,66.0,63.3,29.97,SSW,204,2.0,6.0,91,0.00,,,0.00,Wunderground v.1.15,2013-12-22 06:12:00,
2013-12-22 01:13:00,66.1,63.4,29.97,SSW,198,4.0,6.0,91,0.00,,,0.00,Wunderground v.1.15,2013-12-22 06:13:00,
2013-12-22 01:15:00,66.0,63.3,29.97,SSW,212,2.0,6.0,91,0.00,,,0.00,Wunderground v.1.15,2013-12-22 06:15:00,
2013-12-22 01:18:00,66.0,63.3,29.96,SSW,197,0.0,6.0,91,0.00,,,0.00,Wunderground v.1.15,2013-12-22 06:18:00,
2013-12-22 01:19:00,66.0,63.3,29.97,South,179,6.0,6.0,91,0.00,,,0.00,Wunderground v.1.15,2013-12-22 06:19:00,
2013-12-22 01:22:00,66.0,63.3,29.97,ESE,112,1.0,6.0,91,0.00,,,0.00,Wunderground v.1.15,2013-12-22 06:22:00,
2013-12-22 01:23:00,66.0,63.3,29.97,WSW,246,4.0,6.0,91,0.00,,,0.00,Wunderground v.1.15,2013-12-22 06:23:00,
2013-12-22 01:24:00,66.0,63.3,29.97,SSW,193,1.0,6.0,91,0.00,,,0.00,Wunderground v.1.15,2013-12-22 06:24:00,
2013-12-22 01:27:00,66.0,63.3,29.96,ESE,110,1.0,6.0,91,0.00,,,0.00,Wunderground v.1.15,2013-12-22 06:27:00,
2013-12-22 01:28:00,66.0,63.3,29.97,SSE,152,2.0,6.0,91,0.00,,,0.00,Wunderground v.1.15,2013-12-22 06:28:00,
2013-12-22 01:30:00,66.0,63.3,29.97,SSW,205,3.0,7.0,91,0.00,,,0.00,Wunderground v.1.15,2013-12-22 06:30:00,
2013-12-22 01:35:00,66.1,63.4,29.97,SE,140,2.0,7.0,91,0.00,,,0.00,Wunderground v.1.15,2013-12-22 06:35:00,
2013-12-22 01:37:00,66.1,63.4,29.97,SSE,158,0.0,7.0,91,0.00,,,0.00,Wunderground v.1.15,2013-12-22 06:37:00,
2013-12-22 01:38:00,66.1,63.4,29.97,SSE,166,2.0,7.0,91,0.00,,,0.00,Wunderground v.1.15,2013-12-22 06:38:00,
2013-12-22 01:40:00,66.0,63.3,29.97,SSW,201,2.0,3.0,91,0.00,,,0.00,Wunderground v.1.15,2013-12-22 06:40:00,
2013-12-22 01:41:00,66.0,63.3,29.97,SSE,151,2.0,3.0,91,0.00,,,0.00,Wunderground v.1.15,2013-12-22 06:41:00,
2013-12-22 01:42:00,66.0,63.3,29.97,ESE,122,1.0,3.0,91,0.00,,,0.00,Wunderground v.1.15,2013-12-22 06:42:00,
2013-12-22 01:43:00,66.0,63.3,29.97,SSW,201,1.0,3.0,91,0.00,,,0.00,Wunderground v.1.15,2013-12-22 06:43:00,
2013-12-22 01:44:00,66.0,63.3,29.96,WSW,248,0.0,3.0,91,0.00,,,0.00,Wunderground v.1.15,2013-12-22 06:44:00,
2013-12-22 01:46:00,66.0,63.3,29.96,WNW,300,2.0,3.0,91,0.00,,,0.00,Wunderground v.1.15,2013-12-22 06:46:00,
2013-12-22 01:48:00,65.9,63.2,29.96,South,187,1.0,3.0,91,0.00,,,0.00,Wunderground v.1.15,2013-12-22 06:48:00,
2013-12-22 01:49:00,65.9,63.2,29.96,SSW,201,1.0,3.0,91,0.00,,,0.00,Wunderground v.1.15,2013-12-22 06:49:00,
2013-12-22 01:52:00,65.9,63.5,29.96,SW,225,2.0,4.0,92,0.00,,,0.00,Wunderground v.1.15,2013-12-22 06:52:00,
2013-12-22 01:54:00,65.9,63.5,29.96,SW,225,8.0,8.0,92,0.00,,,0.00,Wunderground v.1.15,2013-12-22 06:54:00,
2013-12-22 01:56:00,66.0,63.6,29.97,SSW,204,2.0,8.0,92,0.00,,,0.00,Wunderground v.1.15,2013-12-22 06:56:00,
2013-12-22 01:59:00,66.0,63.6,29.97,SSE,148,1.0,8.0,92,0.00,,,0.00,Wunderground v.1.15,2013-12-22 06:59:00,
2013-12-22 02:00:00,66.0,63.6,29.96,West,259,1.0,3.0,92,0.00,,,0.00,Wunderground v.1.15,2013-12-22 07:00:00,
2013-12-22 02:01:00,66.0,63.6,29.96,SW,232,1.0,3.0,92,0.00,,,0.00,Wunderground v.1.15,2013-12-22 07:01:00,
2013-12-22 02:05:00,66.0,63.6,29.97,SW,219,5.0,5.0,92,0.00,,,0.00,Wunderground v.1.15,2013-12-22 07:05:00,
2013-12-22 02:06:00,66.0,63.6,29.96,SSW,203,2.0,12.0,92,0.00,,,0.00,Wunderground v.1.15,2013-12-22 07:06:00,
2013-12-22 02:07:00,66.0,63.6,29.96,West,278,2.0,12.0,92,0.00,,,0.00,Wunderground v.1.15,2013-12-22 07:07:00,
2013-12-22 02:10:00,66.1,63.7,29.96,South,191,3.0,3.0,92,0.00,,,0.00,Wunderground v.1.15,2013-12-22 07:10:00,
2013-12-22 02:11:00,66.1,63.7,29.96,SE,132,2.0,6.0,92,0.00,,,0.00,Wunderground v.1.15,2013-12-22 07:11:00,
2013-12-22 02:12:00,66.1,63.7,29.96,SSW,203,3.0,6.0,92,0.00,,,0.00,Wunderground v.1.15,2013-12-22 07:12:00,
2013-12-22 02:15:00,66.2,63.8,29.97,NW,323,2.0,6.0,92,0.00,,,0.00,Wunderground v.1.15,2013-12-22 07:15:00,
2013-12-22 02:16:00,66.1,63.7,29.97,SSE,163,4.0,6.0,92,0.00,,,0.00,Wunderground v.1.15,2013-12-22 07:16:00,
2013-12-22 02:17:00,66.1,63.7,29.97,South,190,1.0,6.0,92,0.00,,,0.00,Wunderground v.1.15,2013-12-22 07:17:00,
2013-12-22 02:20:00,66.2,63.8,29.97,ESE,105,1.0,3.0,92,0.00,,,0.00,Wunderground v.1.15,2013-12-22 07:20:00,
2013-12-22 02:21:00,66.2,63.8,29.97,SW,217,5.0,6.0,92,0.00,,,0.00,Wunderground v.1.15,2013-12-22 07:21:00,
2013-12-22 02:22:00,66.3,63.9,29.97,SSE,158,2.0,6.0,92,0.00,,,0.00,Wunderground v.1.15,2013-12-22 07:22:00,
2013-12-22 02:23:00,66.3,63.9,29.97,South,177,2.0,7.0,92,0.00,,,0.00,Wunderground v.1.15,2013-12-22 07:23:00,
2013-12-22 02:25:00,66.3,63.9,29.98,SSE,166,0.0,7.0,92,0.00,,,0.00,Wunderground v.1.15,2013-12-22 07:25:00,
2013-12-22 02:27:00,66.4,64.0,29.98,ESE,113,2.0,7.0,92,0.00,,,0.00,Wunderground v.1.15,2013-12-22 07:27:00,
2013-12-22 02:30:00,66.4,63.7,29.97,SE,142,1.0,2.0,91,0.00,,,0.00,Wunderground v.1.15,2013-12-22 07:30:00,
2013-12-22 02:31:00,66.5,63.8,29.97,SW,225,5.0,8.0,91,0.00,,,0.00,Wunderground v.1.15,2013-12-22 07:31:00,
2013-12-22 02:32:00,66.5,64.1,29.97,SSW,210,3.0,8.0,92,0.00,,,0.00,Wunderground v.1.15,2013-12-22 07:32:00,
2013-12-22 02:36:00,66.6,63.9,29.97,SW,218,2.0,8.0,91,0.00,,,0.00,Wunderground v.1.15,2013-12-22 07:36:00,
2013-12-22 02:37:00,66.6,63.9,29.97,SSW,212,2.0,8.0,91,0.00,,,0.00,Wunderground v.1.15,2013-12-22 07:37:00,
2013-12-22 02:39:00,66.6,63.9,29.97,SSE,160,1.0,8.0,91,0.00,,,0.00,Wunderground v.1.15,2013-12-22 07:39:00,
2013-12-22 02:41:00,66.7,64.0,29.97,SW,229,2.0,5.0,91,0.00,,,0.00,Wunderground v.1.15,2013-12-22 07:41:00,
2013-12-22 02:42:00,66.7,64.0,29.97,SSE,165,1.0,6.0,91,0.00,,,0.00,Wunderground v.1.15,2013-12-22 07:42:00,
2013-12-22 02:43:00,66.7,64.0,29.97,SSW,212,2.0,6.0,91,0.00,,,0.00,Wunderground v.1.15,2013-12-22 07:43:00,
2013-12-22 02:44:00,66.7,64.0,29.97,SSW,198,2.0,6.0,91,0.00,,,0.00,Wunderground v.1.15,2013-12-22 07:44:00,
2013-12-22 02:46:00,66.7,64.0,29.97,SE,132,1.0,6.0,91,0.00,,,0.00,Wunderground v.1.15,2013-12-22 07:46:00,
2013-12-22 02:47:00,66.7,64.0,29.97,WSW,258,2.0,6.0,91,0.00,,,0.00,Wunderground v.1.15,2013-12-22 07:47:00,
2013-12-22 02:48:00,66.8,64.1,29.97,SSW,205,6.0,7.0,91,0.00,,,0.00,Wunderground v.1.15,2013-12-22 07:48:00,
2013-12-22 02:50:00,66.8,64.1,29.97,SSW,207,5.0,6.0,91,0.00,,,0.00,Wunderground v.1.15,2013-12-22 07:50:00,
2013-12-22 02:52:00,66.8,64.1,29.97,West,260,1.0,8.0,91,0.00,,,0.00,Wunderground v.1.15,2013-12-22 07:52:00,
2013-12-22 02:54:00,66.9,64.2,29.97,SW,216,1.0,8.0,91,0.00,,,0.00,Wunderground v.1.15,2013-12-22 07:54:00,
2013-12-22 02:55:00,66.9,64.2,29.97,West,280,2.0,8.0,91,0.00,,,0.00,Wunderground v.1.15,2013-12-22 07:55:00,
2013-12-22 02:57:00,66.9,64.2,29.97,SE,145,1.0,8.0,91,0.00,,,0.00,Wunderground v.1.15,2013-12-22 07:57:00,
2013-12-22 02:59:00,66.9,64.2,29.98,South,181,1.0,8.0,91,0.00,,,0.00,Wunderground v.1.15,2013-12-22 07:59:00,
2013-12-22 03:00:00,66.9,64.2,29.98,SW,214,1.0,2.0,91,0.00,,,0.00,Wunderground v.1.15,2013-12-22 08:00:00,
2013-12-22 03:02:00,66.9,64.2,29.98,SSE,155,2.0,7.0,91,0.00,,,0.00,Wunderground v.1.15,2013-12-22 08:02:00,
2013-12-22 03:04:00,66.9,64.2,29.98,South,191,3.0,7.0,91,0.00,,,0.00,Wunderground v.1.15,2013-12-22 08:04:00,
2013-12-22 03:05:00,66.9,64.2,29.98,South,191,1.0,7.0,91,0.00,,,0.00,Wunderground v.1.15,2013-12-22 08:05:00,
2013-12-22 03:06:00,66.9,64.2,29.98,South,191,1.0,7.0,91,0.00,,,0.00,Wunderground v.1.15,2013-12-22 08:06:00,
2013-12-22 03:07:00,66.9,64.2,29.98,South,184,2.0,9.0,91,0.00,,,0.00,Wunderground v.1.15,2013-12-22 08:07:00,
2013-12-22 03:08:00,66.9,64.2,29.98,SSE,158,3.0,9.0,91,0.00,,,0.00,Wunderground v.1.15,2013-12-22 08:08:00,
2013-12-22 03:09:00,66.9,64.2,29.98,SSE,164,2.0,9.0,91,0.00,,,0.00,Wunderground v.1.15,2013-12-22 08:09:00,
2013-12-22 03:11:00,66.9,64.2,29.98,ESE,121,1.0,4.0,91,0.00,,,0.00,Wunderground v.1.15,2013-12-22 08:11:00,
2013-12-22 03:13:00,66.9,64.2,29.98,WSW,245,2.0,4.0,91,0.00,,,0.00,Wunderground v.1.15,2013-12-22 08:13:00,
2013-12-22 03:14:00,66.9,64.2,29.98,SW,233,6.0,6.0,91,0.00,,,0.00,Wunderground v.1.15,2013-12-22 08:14:00,
2013-12-22 03:15:00,66.9,64.2,29.98,SW,219,4.0,7.0,91,0.00,,,0.00,Wunderground v.1.15,2013-12-22 08:15:00,
2013-12-22 03:16:00,66.9,64.2,29.98,South,181,4.0,7.0,91,0.00,,,0.00,Wunderground v.1.15,2013-12-22 08:16:00,
2013-12-22 03:18:00,67.0,64.3,29.98,ENE,75,1.0,7.0,91,0.00,,,0.00,Wunderground v.1.15,2013-12-22 08:18:00,
2013-12-22 03:19:00,67.0,64.3,29.98,SW,216,6.0,8.0,91,0.00,,,0.00,Wunderground v.1.15,2013-12-22 08:19:00,
2013-12-22 03:20:00,67.1,64.4,29.99,SW,226,0.0,3.0,91,0.00,,,0.00,Wunderground v.1.15,2013-12-22 08:20:00,
2013-12-22 03:21:00,67.1,64.4,29.99,WSW,238,3.0,3.0,91,0.00,,,0.00,Wunderground v.1.15,2013-12-22 08:21:00,
2013-12-22 03:22:00,67.1,64.4,29.98,SW,215,4.0,7.0,91,0.00,,,0.00,Wunderground v.1.15,2013-12-22 08:22:00,
2013-12-22 03:23:00,67.1,64.4,29.99,SSE,164,2.0,7.0,91,0.00,,,0.00,Wunderground v.1.15,2013-12-22 08:23:00,
2013-12-22 03:24:00,67.1,64.4,29.98,SW,215,5.0,7.0,91,0.00,,,0.00,Wunderground v.1.15,2013-12-22 08:24:00,
2013-12-22 03:25:00,67.1,64.4,29.98,WSW,250,1.0,7.0,91,0.00,,,0.00,Wunderground v.1.15,2013-12-22 08:25:00,
2013-12-22 03:26:00,67.1,64.4,29.98,SSW,197,4.0,7.0,91,0.00,,,0.00,Wunderground v.1.15,2013-12-22 08:26:00,
2013-12-22 03:28:00,67.1,64.4,29.98,SW,219,1.0,7.0,91,0.00,,,0.00,Wunderground v.1.15,2013-12-22 08:28:00,
2013-12-22 03:29:00,67.1,64.4,29.98,SSW,195,4.0,7.0,91,0.00,,,0.00,Wunderground v.1.15,2013-12-22 08:29:00,
2013-12-22 03:30:00,67.1,64.4,29.98,SW,218,6.0,6.0,91,0.00,,,0.00,Wunderground v.1.15,2013-12-22 08:30:00,
2013-12-22 03:31:00,67.2,64.5,29.98,SSE,165,3.0,6.0,91,0.00,,,0.00,Wunderground v.1.15,2013-12-22 08:31:00,
2013-12-22 03:32:00,67.2,64.5,29.98,SSW,200,4.0,6.0,91,0.00,,,0.00,Wunderground v.1.15,2013-12-22 08:32:00,
2013-12-22 03:33:00,67.2,64.5,29.99,SSE,149,3.0,6.0,91,0.00,,,0.00,Wunderground v.1.15,2013-12-22 08:33:00,
2013-12-22 03:34:00,67.2,64.5,29.99,SW,217,3.0,6.0,91,0.00,,,0.00,Wunderground v.1.15,2013-12-22 08:34:00,
2013-12-22 03:35:00,67.2,64.5,29.98,SSW,210,0.0,6.0,91,0.00,,,0.00,Wunderground v.1.15,2013-12-22 08:35:00,
2013-12-22 03:36:00,67.2,64.5,29.98,SSW,201,3.0,6.0,91,0.00,,,0.00,Wunderground v.1.15,2013-12-22 08:36:00,
2013-12-22 03:37:00,67.2,64.5,29.98,ESE,103,3.0,9.0,91,0.00,,,0.00,Wunderground v.1.15,2013-12-22 08:37:00,
2013-12-22 03:38:00,67.2,64.5,29.98,SW,221,2.0,9.0,91,0.00,,,0.00,Wunderground v.1.15,2013-12-22 08:38:00,
2013-12-22 03:39:00,67.2,64.5,29.98,South,169,3.0,9.0,91,0.00,,,0.00,Wunderground v.1.15,2013-12-22 08:39:00,
2013-12-22 03:41:00,67.1,64.4,29.98,SSW,197,2.0,4.0,91,0.00,,,0.00,Wunderground v.1.15,2013-12-22 08:41:00,
2013-12-22 03:42:00,67.1,64.4,29.98,SSW,204,4.0,5.0,91,0.00,,,0.00,Wunderground v.1.15,2013-12-22 08:42:00,
2013-12-22 03:44:00,67.2,64.5,29.98,South,184,4.0,9.0,91,0.00,,,0.00,Wunderground v.1.15,2013-12-22 08:44:00,
2013-12-22 03:46:00,67.2,64.5,29.98,South,191,4.0,9.0,91,0.00,,,0.00,Wunderground v.1.15,2013-12-22 08:46:00,
2013-12-22 03:47:00,67.2,64.5,29.98,SSW,201,2.0,9.0,91,0.00,,,0.00,Wunderground v.1.15,2013-12-22 08:47:00,
2013-12-22 03:49:00,67.2,64.5,29.97,SSE,159,2.0,9.0,91,0.00,,,0.00,Wunderground v.1.15,2013-12-22 08:49:00,
2013-12-22 03:50:00,67.2,64.5,29.97,SW,229,3.0,4.0,91,0.00,,,0.00,Wunderground v.1.15,2013-12-22 08:50:00,
2013-12-22 03:51:00,67.2,64.5,29.97,SW,222,2.0,6.0,91,0.00,,,0.00,Wunderground v.1.15,2013-12-22 08:51:00,
2013-12-22 03:53:00,67.2,64.5,29.97,SE,128,3.0,13.0,91,0.00,,,0.00,Wunderground v.1.15,2013-12-22 08:53:00,
2013-12-22 03:54:00,67.2,64.5,29.97,SW,235,1.0,13.0,91,0.00,,,0.00,Wunderground v.1.15,2013-12-22 08:54:00,
2013-12-22 03:55:00,67.2,64.5,29.97,SW,215,5.0,13.0,91,0.00,,,0.00,Wunderground v.1.15,2013-12-22 08:55:00,
2013-12-22 03:56:00,67.2,64.5,29.97,SW,216,6.0,13.0,91,0.00,,,0.00,Wunderground v.1.15,2013-12-22 08:56:00,
2013-12-22 03:58:00,67.2,64.5,29.97,SW,217,2.0,13.0,91,0.00,,,0.00,Wunderground v.1.15,2013-12-22 08:58:00,
2013-12-22 03:59:00,67.2,64.5,29.97,SSW,205,1.0,13.0,91,0.00,,,0.00,Wunderground v.1.15,2013-12-22 08:59:00,
2013-12-22 04:00:00,67.2,64.5,29.97,East,101,2.0,4.0,91,0.00,,,0.00,Wunderground v.1.15,2013-12-22 09:00:00,
2013-12-22 04:01:00,67.2,64.5,29.97,SW,233,7.0,7.0,91,0.00,,,0.00,Wunderground v.1.15,2013-12-22 09:01:00,
2013-12-22 04:02:00,67.2,64.5,29.97,SSE,150,1.0,7.0,91,0.00,,,0.00,Wunderground v.1.15,2013-12-22 09:02:00,
2013-12-22 04:03:00,67.2,64.5,29.97,East,100,1.0,8.0,91,0.00,,,0.00,Wunderground v.1.15,2013-12-22 09:03:00,
2013-12-22 04:04:00,67.1,64.4,29.97,South,176,3.0,8.0,91,0.00,,,0.00,Wunderground v.1.15,2013-12-22 09:04:00,
2013-12-22 04:05:00,67.2,64.5,29.97,South,173,2.0,8.0,91,0.00,,,0.00,Wunderground v.1.15,2013-12-22 09:05:00,
2013-12-22 04:06:00,67.2,64.5,29.96,West,276,3.0,8.0,91,0.00,,,0.00,Wunderground v.1.15,2013-12-22 09:06:00,
2013-12-22 04:07:00,67.2,64.5,29.96,WNW,300,2.0,8.0,91,0.00,,,0.00,Wunderground v.1.15,2013-12-22 09:07:00,
2013-12-22 04:09:00,67.2,64.5,29.97,SW,215,1.0,10.0,91,0.00,,,0.00,Wunderground v.1.15,2013-12-22 09:09:00,
2013-12-22 04:10:00,67.2,64.5,29.97,SW,232,5.0,5.0,91,0.00,,,0.00,Wunderground v.1.15,2013-12-22 09:10:00,
2013-12-22 04:11:00,67.2,64.5,29.97,SSW,210,3.0,8.0,91,0.00,,,0.00,Wunderground v.1.15,2013-12-22 09:11:00,
2013-12-22 04:12:00,67.2,64.5,29.97,SW,221,2.0,8.0,91,0.00,,,0.00,Wunderground v.1.15,2013-12-22 09:12:00,
2013-12-22 04:14:00,67.2,64.5,29.97,SE,146,0.0,9.0,91,0.00,,,0.00,Wunderground v.1.15,2013-12-22 09:14:00,
2013-12-22 04:15:00,67.3,64.6,29.97,SE,146,1.0,9.0,91,0.00,,,0.00,Wunderground v.1.15,2013-12-22 09:15:00,
2013-12-22 04:16:00,67.2,64.5,29.97,ENE,74,2.0,9.0,91,0.00,,,0.00,Wunderground v.1.15,2013-12-22 09:16:00,
2013-12-22 04:17:00,67.2,64.5,29.97,SSE,167,4.0,9.0,91,0.00,,,0.00,Wunderground v.1.15,2013-12-22 09:17:00,
2013-12-22 04:20:00,67.3,64.6,29.97,SW,216,8.0,8.0,91,0.00,,,0.00,Wunderground v.1.15,2013-12-22 09:20:00,
2013-12-22 04:22:00,67.3,64.6,29.97,SW,221,4.0,9.0,91,0.00,,,0.00,Wunderground v.1.15,2013-12-22 09:22:00,
2013-12-22 04:25:00,67.3,64.6,29.96,WSW,238,1.0,10.0,91,0.00,,,0.00,Wunderground v.1.15,2013-12-22 09:25:00,
2013-12-22 04:27:00,67.3,64.6,29.96,East,94,2.0,10.0,91,0.00,,,0.00,Wunderground v.1.15,2013-12-22 09:27:00,
2013-12-22 04:28:00,67.3,64.6,29.96,WSW,252,3.0,10.0,91,0.00,,,0.00,Wunderground v.1.15,2013-12-22 09:28:00,
2013-12-22 04:30:00,67.3,64.6,29.96,SSW,210,2.0,4.0,91,0.00,,,0.00,Wunderground v.1.15,2013-12-22 09:30:00,
2013-12-22 04:32:00,67.3,64.6,29.96,WSW,240,4.0,6.0,91,0.00,,,0.00,Wunderground v.1.15,2013-12-22 09:32:00,
2013-12-22 04:33:00,67.2,64.5,29.96,SSW,204,5.0,6.0,91,0.00,,,0.00,Wunderground v.1.15,2013-12-22 09:33:00,
2013-12-22 04:35:00,67.3,64.6,29.96,SSW,193,1.0,6.0,91,0.00,,,0.00,Wunderground v.1.15,2013-12-22 09:35:00,
2013-12-22 04:36:00,67.3,64.6,29.96,SW,221,1.0,6.0,91,0.00,,,0.00,Wunderground v.1.15,2013-12-22 09:36:00,
2013-12-22 04:38:00,67.3,64.6,29.96,SW,214,4.0,7.0,91,0.00,,,0.00,Wunderground v.1.15,2013-12-22 09:38:00,
2013-12-22 04:40:00,67.3,64.6,29.96,SSW,210,4.0,7.0,91,0.00,,,0.00,Wunderground v.1.15,2013-12-22 09:40:00,
2013-12-22 04:41:00,67.3,64.6,29.96,SSE,166,2.0,7.0,91,0.00,,,0.00,Wunderground v.1.15,2013-12-22 09:41:00,
2013-12-22 04:43:00,67.3,64.6,29.95,SSW,197,2.0,7.0,91,0.00,,,0.00,Wunderground v.1.15,2013-12-22 09:43:00,
2013-12-22 04:44:00,67.3,64.6,29.95,WSW,255,7.0,9.0,91,0.00,,,0.00,Wunderground v.1.15,2013-12-22 09:44:00,
2013-12-22 04:45:00,67.3,64.6,29.95,SW,228,4.0,9.0,91,0.00,,,0.00,Wunderground v.1.15,2013-12-22 09:45:00,
2013-12-22 04:46:00,67.3,64.6,29.95,SSW,212,2.0,9.0,91,0.00,,,0.00,Wunderground v.1.15,2013-12-22 09:46:00,
2013-12-22 04:48:00,67.3,64.6,29.95,ESE,115,0.0,9.0,91,0.00,,,0.00,Wunderground v.1.15,2013-12-22 09:48:00,
2013-12-22 04:49:00,67.3,64.6,29.96,SSW,207,1.0,9.0,91,0.00,,,0.00,Wunderground v.1.15,2013-12-22 09:49:00,
2013-12-22 04:51:00,67.3,64.6,29.95,SW,229,6.0,6.0,91,0.00,,,0.00,Wunderground v.1.15,2013-12-22 09:51:00,
2013-12-22 04:54:00,67.3,64.6,29.95,South,169,3.0,6.0,91,0.00,,,0.00,Wunderground v.1.15,2013-12-22 09:54:00,
2013-12-22 04:55:00,67.3,64.6,29.95,SW,229,3.0,6.0,91,0.00,,,0.00,Wunderground v.1.15,2013-12-22 09:55:00,
2013-12-22 04:56:00,67.3,64.6,29.95,SW,222,3.0,6.0,91,0.00,,,0.00,Wunderground v.1.15,2013-12-22 09:56:00,
2013-12-22 04:57:00,67.3,64.6,29.95,SW,222,5.0,6.0,91,0.00,,,0.00,Wunderground v.1.15,2013-12-22 09:57:00,
2013-12-22 04:59:00,67.3,64.6,29.95,East,90,3.0,13.0,91,0.00,,,0.00,Wunderground v.1.15,2013-12-22 09:59:00,
2013-12-22 05:01:00,67.4,64.7,29.95,SW,216,5.0,5.0,91,0.00,,,0.00,Wunderground v.1.15,2013-12-22 10:01:00,
2013-12-22 05:02:00,67.4,64.7,29.95,SW,218,4.0,5.0,91,0.00,,,0.00,Wunderground v.1.15,2013-12-22 10:02:00,
2013-12-22 05:04:00,67.4,64.7,29.95,SE,142,2.0,7.0,91,0.00,,,0.00,Wunderground v.1.15,2013-12-22 10:04:00,
2013-12-22 05:05:00,67.4,64.7,29.95,SW,225,3.0,7.0,91,0.00,,,0.00,Wunderground v.1.15,2013-12-22 10:05:00,
2013-12-22 05:06:00,67.4,64.7,29.95,SW,221,4.0,7.0,91,0.00,,,0.00,Wunderground v.1.15,2013-12-22 10:06:00,
2013-12-22 05:07:00,67.4,64.7,29.95,SSW,201,6.0,7.0,91,0.00,,,0.00,Wunderground v.1.15,2013-12-22 10:07:00,
2013-12-22 05:09:00,67.4,64.7,29.95,SW,235,3.0,7.0,91,0.00,,,0.00,Wunderground v.1.15,2013-12-22 10:09:00,
2013-12-22 05:10:00,67.4,64.7,29.95,SW,222,6.0,6.0,91,0.00,,,0.00,Wunderground v.1.15,2013-12-22 10:10:00,
2013-12-22 05:12:00,67.4,65.0,29.95,SSW,202,6.0,6.0,92,0.00,,,0.00,Wunderground v.1.15,2013-12-22 10:12:00,
2013-12-22 05:14:00,67.3,64.9,29.95,SW,232,7.0,9.0,92,0.00,,,0.00,Wunderground v.1.15,2013-12-22 10:14:00,
2013-12-22 05:15:00,67.3,64.9,29.95,SSE,165,5.0,9.0,92,0.00,,,0.00,Wunderground v.1.15,2013-12-22 10:15:00,
2013-12-22 05:17:00,67.3,64.9,29.95,SW,218,2.0,10.0,92,0.00,,,0.00,Wunderground v.1.15,2013-12-22 10:17:00,
2013-12-22 05:18:00,67.3,64.9,29.95,SSE,149,2.0,10.0,92,0.00,,,0.00,Wunderground v.1.15,2013-12-22 10:18:00,
2013-12-22 05:20:00,67.3,64.9,29.95,SSW,207,0.0,4.0,92,0.00,,,0.00,Wunderground v.1.15,2013-12-22 10:20:00,
2013-12-22 05:21:00,67.3,64.9,29.95,SW,235,2.0,4.0,92,0.00,,,0.00,Wunderground v.1.15,2013-12-22 10:21:00,
2013-12-22 05:22:00,67.3,64.9,29.95,SE,133,1.0,8.0,92,0.00,,,0.00,Wunderground v.1.15,2013-12-22 10:22:00,
2013-12-22 05:23:00,67.3,64.9,29.95,South,186,2.0,8.0,92,0.00,,,0.00,Wunderground v.1.15,2013-12-22 10:23:00,
2013-12-22 05:25:00,67.3,64.9,29.95,SSW,204,1.0,8.0,92,0.00,,,0.00,Wunderground v.1.15,2013-12-22 10:25:00,
2013-12-22 05:26:00,67.3,64.9,29.95,SSW,195,4.0,8.0,92,0.00,,,0.00,Wunderground v.1.15,2013-12-22 10:26:00,
2013-12-22 05:27:00,67.3,64.9,29.95,SSW,213,5.0,8.0,92,0.00,,,0.00,Wunderground v.1.15,2013-12-22 10:27:00,
2013-12-22 05:28:00,67.3,64.9,29.95,SW,233,4.0,8.0,92,0.00,,,0.00,Wunderground v.1.15,2013-12-22 10:28:00,
2013-12-22 05:29:00,67.3,64.9,29.95,SE,134,3.0,8.0,92,0.00,,,0.00,Wunderground v.1.15,2013-12-22 10:29:00,
2013-12-22 05:30:00,67.3,64.9,29.95,SW,225,8.0,8.0,92,0.00,,,0.00,Wunderground v.1.15,2013-12-22 10:30:00,
2013-12-22 05:31:00,67.4,65.0,29.95,SSW,200,1.0,11.0,92,0.00,,,0.00,Wunderground v.1.15,2013-12-22 10:31:00,
2013-12-22 05:32:00,67.4,65.0,29.95,South,169,1.0,11.0,92,0.00,,,0.00,Wunderground v.1.15,2013-12-22 10:32:00,
2013-12-22 05:33:00,67.4,65.0,29.95,SSW,194,3.0,11.0,92,0.00,,,0.00,Wunderground v.1.15,2013-12-22 10:33:00,
2013-12-22 05:34:00,67.4,65.0,29.95,SE,146,4.0,11.0,92,0.00,,,0.00,Wunderground v.1.15,2013-12-22 10:34:00,
2013-12-22 05:35:00,67.4,65.0,29.95,SE,140,1.0,11.0,92,0.00,,,0.00,Wunderground v.1.15,2013-12-22 10:35:00,
2013-12-22 05:36:00,67.4,65.0,29.95,SW,232,2.0,11.0,92,0.00,,,0.00,Wunderground v.1.15,2013-12-22 10:36:00,
2013-12-22 05:37:00,67.4,65.0,29.96,SW,221,3.0,11.0,92,0.00,,,0.00,Wunderground v.1.15,2013-12-22 10:37:00,
2013-12-22 05:39:00,67.4,65.0,29.95,SSW,205,2.0,11.0,92,0.00,,,0.00,Wunderground v.1.15,2013-12-22 10:39:00,
2013-12-22 05:40:00,67.4,65.0,29.95,SSW,194,2.0,3.0,92,0.00,,,0.00,Wunderground v.1.15,2013-12-22 10:40:00,
2013-12-22 05:42:00,67.5,65.1,29.96,SW,226,1.0,7.0,92,0.00,,,0.00,Wunderground v.1.15,2013-12-22 10:42:00,
2013-12-22 05:43:00,67.5,65.1,29.96,SSW,201,3.0,7.0,92,0.00,,,0.00,Wunderground v.1.15,2013-12-22 10:43:00,
2013-12-22 05:44:00,67.5,65.1,29.96,SSE,160,1.0,11.0,92,0.00,,,0.00,Wunderground v.1.15,2013-12-22 10:44:00,
2013-12-22 05:45:00,67.5,65.1,29.96,SW,221,6.0,11.0,92,0.00,,,0.00,Wunderground v.1.15,2013-12-22 10:45:00,
2013-12-22 05:47:00,67.5,65.1,29.96,SW,215,2.0,11.0,92,0.00,,,0.00,Wunderground v.1.15,2013-12-22 10:47:00,
2013-12-22 05:48:00,67.5,65.1,29.96,SSE,149,1.0,11.0,92,0.00,,,0.00,Wunderground v.1.15,2013-12-22 10:48:00,
2013-12-22 05:49:00,67.5,65.1,29.96,South,178,2.0,11.0,92,0.00,,,0.00,Wunderground v.1.15,2013-12-22 10:49:00,
2013-12-22 05:50:00,67.5,65.1,29.96,SSW,193,0.0,3.0,92,0.00,,,0.00,Wunderground v.1.15,2013-12-22 10:50:00,
2013-12-22 05:51:00,67.5,65.1,29.96,SSW,203,2.0,7.0,92,0.00,,,0.00,Wunderground v.1.15,2013-12-22 10:51:00,
2013-12-22 05:52:00,67.4,65.0,29.96,SSE,149,1.0,7.0,92,0.00,,,0.00,Wunderground v.1.15,2013-12-22 10:52:00,
2013-12-22 05:53:00,67.4,65.0,29.96,SSW,204,4.0,7.0,92,0.00,,,0.00,Wunderground v.1.15,2013-12-22 10:53:00,
2013-12-22 05:55:00,67.4,65.0,29.96,SW,219,3.0,7.0,92,0.00,,,0.00,Wunderground v.1.15,2013-12-22 10:55:00,
2013-12-22 05:56:00,67.4,65.0,29.96,WSW,255,2.0,7.0,92,0.00,,,0.00,Wunderground v.1.15,2013-12-22 10:56:00,
2013-12-22 05:58:00,67.3,64.9,29.96,SSW,205,0.0,7.0,92,0.00,,,0.00,Wunderground v.1.15,2013-12-22 10:58:00,
2013-12-22 06:00:00,67.3,64.9,29.96,SSW,204,3.0,4.0,92,0.00,,,0.00,Wunderground v.1.15,2013-12-22 11:00:00,
2013-12-22 06:01:00,67.3,64.9,29.96,ESE,117,3.0,5.0,92,0.00,,,0.00,Wunderground v.1.15,2013-12-22 11:01:00,
2013-12-22 06:03:00,67.2,64.8,29.96,SSW,212,3.0,5.0,92,0.00,,,0.00,Wunderground v.1.15,2013-12-22 11:03:00,
2013-12-22 06:05:00,67.2,65.1,29.96,SW,216,2.0,6.0,93,0.00,,,0.00,Wunderground v.1.15,2013-12-22 11:05:00,
2013-12-22 06:06:00,67.2,65.1,29.96,South,186,5.0,6.0,93,0.00,,,0.00,Wunderground v.1.15,2013-12-22 11:06:00,
2013-12-22 06:08:00,67.2,65.1,29.97,SSW,197,0.0,6.0,93,0.00,,,0.00,Wunderground v.1.15,2013-12-22 11:08:00,
2013-12-22 06:10:00,67.2,65.1,29.96,SSW,197,1.0,4.0,93,0.00,,,0.00,Wunderground v.1.15,2013-12-22 11:10:00,
2013-12-22 06:11:00,67.2,65.1,29.96,SSW,211,3.0,4.0,93,0.00,,,0.00,Wunderground v.1.15,2013-12-22 11:11:00,
2013-12-22 06:12:00,67.2,65.1,29.96,SSW,201,1.0,4.0,93,0.00,,,0.00,Wunderground v.1.15,2013-12-22 11:12:00,
2013-12-22 06:13:00,67.2,65.1,29.96,SE,136,1.0,9.0,93,0.00,,,0.00,Wunderground v.1.15,2013-12-22 11:13:00,
2013-12-22 06:15:00,67.2,65.1,29.97,SSW,205,4.0,11.0,93,0.00,,,0.00,Wunderground v.1.15,2013-12-22 11:15:00,
2013-12-22 06:16:00,67.2,65.1,29.97,ENE,77,2.0,11.0,93,0.00,,,0.00,Wunderground v.1.15,2013-12-22 11:16:00,
2013-12-22 06:17:00,67.2,65.1,29.97,SE,129,1.0,11.0,93,0.00,,,0.00,Wunderground v.1.15,2013-12-22 11:17:00,
2013-12-22 06:19:00,67.2,65.1,29.97,South,178,1.0,11.0,93,0.00,,,0.00,Wunderground v.1.15,2013-12-22 11:19:00,
2013-12-22 06:20:00,67.2,65.1,29.97,SW,233,6.0,7.0,93,0.00,,,0.00,Wunderground v.1.15,2013-12-22 11:20:00,
2013-12-22 06:21:00,67.2,65.1,29.97,SSW,198,3.0,7.0,93,0.00,,,0.00,Wunderground v.1.15,2013-12-22 11:21:00,
2013-12-22 06:22:00,67.2,65.1,29.97,SSW,201,1.0,7.0,93,0.00,,,0.00,Wunderground v.1.15,2013-12-22 11:22:00,
2013-12-22 06:24:00,67.3,65.2,29.97,WSW,248,1.0,7.0,93,0.00,,,0.00,Wunderground v.1.15,2013-12-22 11:24:00,
2013-12-22 06:25:00,67.2,65.1,29.97,SW,225,4.0,7.0,93,0.00,,,0.00,Wunderground v.1.15,2013-12-22 11:25:00,
2013-12-22 06:27:00,67.2,65.1,29.97,SSW,193,2.0,7.0,93,0.00,,,0.01,Wunderground v.1.15,2013-12-22 11:27:00,
2013-12-22 06:28:00,67.2,65.1,29.97,SSW,195,0.0,7.0,93,0.00,,,0.01,Wunderground v.1.15,2013-12-22 11:28:00,
2013-12-22 06:29:00,67.1,65.0,29.97,SSE,148,2.0,7.0,93,0.00,,,0.01,Wunderground v.1.15,2013-12-22 11:29:00,
2013-12-22 06:30:00,67.1,65.0,29.97,SSE,148,1.0,2.0,93,0.00,,,0.01,Wunderground v.1.15,2013-12-22 11:30:00,
2013-12-22 06:32:00,67.0,65.2,29.97,SE,146,1.0,4.0,94,0.00,,,0.01,Wunderground v.1.15,2013-12-22 11:32:00,
2013-12-22 06:33:00,67.0,65.2,29.97,SSE,149,1.0,6.0,94,0.00,,,0.01,Wunderground v.1.15,2013-12-22 11:33:00,
2013-12-22 06:35:00,66.9,65.1,29.97,WSW,249,5.0,6.0,94,0.00,,,0.01,Wunderground v.1.15,2013-12-22 11:35:00,
2013-12-22 06:36:00,66.9,65.1,29.97,South,191,5.0,8.0,94,0.00,,,0.01,Wunderground v.1.15,2013-12-22 11:36:00,
2013-12-22 06:37:00,66.9,65.1,29.97,SSW,211,6.0,8.0,94,0.00,,,0.01,Wunderground v.1.15,2013-12-22 11:37:00,
2013-12-22 06:38:00,66.9,65.1,29.97,SW,236,2.0,8.0,94,0.00,,,0.01,Wunderground v.1.15,2013-12-22 11:38:00,
2013-12-22 06:39:00,66.9,65.1,29.97,SW,232,2.0,8.0,94,0.00,,,0.01,Wunderground v.1.15,2013-12-22 11:39:00,
2013-12-22 06:40:00,66.8,65.0,29.98,SE,143,2.0,4.0,94,0.00,,,0.01,Wunderground v.1.15,2013-12-22 11:40:00,
2013-12-22 06:41:00,66.8,65.0,29.98,SE,135,0.0,4.0,94,0.00,,,0.01,Wunderground v.1.15,2013-12-22 11:41:00,
2013-12-22 06:42:00,66.8,65.0,29.97,SSE,150,2.0,4.0,94,0.00,,,0.01,Wunderground v.1.15,2013-12-22 11:42:00,
2013-12-22 06:44:00,66.7,65.2,29.97,SW,231,4.0,4.0,95,0.00,,,0.01,Wunderground v.1.15,2013-12-22 11:44:00,
2013-12-22 06:45:00,66.7,65.2,29.98,SSE,152,0.0,6.0,95,0.00,,,0.01,Wunderground v.1.15,2013-12-22 11:45:00,
2013-12-22 06:46:00,66.7,65.2,29.98,SSW,197,2.0,6.0,95,0.00,,,0.01,Wunderground v.1.15,2013-12-22 11:46:00,
2013-12-22 06:47:00,66.7,65.2,29.97,South,181,0.0,6.0,95,0.00,,,0.01,Wunderground v.1.15,2013-12-22 11:47:00,
2013-12-22 06:49:00,66.6,65.1,29.98,SSW,210,2.0,10.0,95,0.00,,,0.01,Wunderground v.1.15,2013-12-22 11:49:00,
2013-12-22 06:50:00,66.6,65.1,29.98,South,188,1.0,6.0,95,0.00,,,0.01,Wunderground v.1.15,2013-12-22 11:50:00,
2013-12-22 06:51:00,66.6,65.1,29.98,SW,233,4.0,6.0,95,0.00,,,0.01,Wunderground v.1.15,2013-12-22 11:51:00,
2013-12-22 06:52:00,66.6,65.1,29.98,SSW,198,1.0,6.0,95,0.00,,,0.01,Wunderground v.1.15,2013-12-22 11:52:00,
2013-12-22 06:54:00,66.6,65.1,29.98,SW,218,5.0,7.0,95,0.00,,,0.01,Wunderground v.1.15,2013-12-22 11:54:00,
2013-12-22 06:55:00,66.6,65.1,29.98,South,186,1.0,7.0,95,0.00,,,0.01,Wunderground v.1.15,2013-12-22 11:55:00,
2013-12-22 06:56:00,66.6,65.1,29.98,SW,226,8.0,9.0,95,0.00,,,0.01,Wunderground v.1.15,2013-12-22 11:56:00,
2013-12-22 06:57:00,66.6,65.1,29.98,SW,232,1.0,9.0,95,0.00,,,0.01,Wunderground v.1.15,2013-12-22 11:57:00,
2013-12-22 07:00:00,66.6,65.1,29.98,SW,225,5.0,5.0,95,0.00,,,0.01,Wunderground v.1.15,2013-12-22 12:00:00,
2013-12-22 07:01:00,66.5,65.0,29.98,SSW,200,0.0,5.0,95,0.74,,,0.03,Wunderground v.1.15,2013-12-22 12:01:00,
2013-12-22 07:02:00,66.5,65.0,29.98,SW,232,2.0,5.0,95,0.35,,,0.03,Wunderground v.1.15,2013-12-22 12:02:00,
2013-12-22 07:05:00,66.5,65.0,29.98,SW,235,2.0,6.0,95,0.16,,,0.04,Wunderground v.1.15,2013-12-22 12:05:00,
2013-12-22 07:06:00,66.4,64.9,29.98,SW,225,0.0,6.0,95,0.16,,,0.04,Wunderground v.1.15,2013-12-22 12:06:00,
2013-12-22 07:08:00,66.4,64.9,29.98,South,180,2.0,6.0,95,0.16,,,0.04,Wunderground v.1.15,2013-12-22 12:08:00,
2013-12-22 07:09:00,66.4,64.9,29.98,SSW,205,1.0,6.0,95,0.12,,,0.04,Wunderground v.1.15,2013-12-22 12:09:00,
2013-12-22 07:10:00,66.4,64.9,29.98,SSW,204,0.0,2.0,95,0.11,,,0.04,Wunderground v.1.15,2013-12-22 12:10:00,
2013-12-22 07:11:00,66.3,64.8,29.98,SSW,207,1.0,2.0,95,0.10,,,0.04,Wunderground v.1.15,2013-12-22 12:11:00,
2013-12-22 07:14:00,66.3,65.1,29.98,SW,229,4.0,6.0,96,0.06,,,0.04,Wunderground v.1.15,2013-12-22 12:14:00,
2013-12-22 07:15:00,66.3,65.1,29.98,SW,224,2.0,6.0,96,0.06,,,0.04,Wunderground v.1.15,2013-12-22 12:15:00,
2013-12-22 07:16:00,66.3,65.1,29.98,WSW,243,5.0,6.0,96,0.05,,,0.04,Wunderground v.1.15,2013-12-22 12:16:00,
2013-12-22 07:17:00,66.3,65.1,29.98,SSW,195,1.0,6.0,96,0.05,,,0.04,Wunderground v.1.15,2013-12-22 12:17:00,
2013-12-22 07:19:00,66.3,65.1,29.98,WSW,248,2.0,6.0,96,0.04,,,0.05,Wunderground v.1.15,2013-12-22 12:19:00,
2013-12-22 07:20:00,66.3,65.1,29.98,SW,218,2.0,2.0,96,0.04,,,0.05,Wunderground v.1.15,2013-12-22 12:20:00,
2013-12-22 07:21:00,66.3,65.1,29.98,SSW,197,2.0,6.0,96,0.04,,,0.05,Wunderground v.1.15,2013-12-22 12:21:00,
2013-12-22 07:22:00,66.3,65.1,29.98,SSW,200,3.0,6.0,96,0.04,,,0.05,Wunderground v.1.15,2013-12-22 12:22:00,
2013-12-22 07:24:00,66.2,65.0,29.98,SW,221,1.0,6.0,96,0.04,,,0.05,Wunderground v.1.15,2013-12-22 12:24:00,
2013-12-22 07:25:00,66.2,65.0,29.98,SW,221,1.0,6.0,96,0.04,,,0.05,Wunderground v.1.15,2013-12-22 12:25:00,
2013-12-22 07:26:00,66.2,65.0,29.98,SW,225,1.0,6.0,96,0.04,,,0.05,Wunderground v.1.15,2013-12-22 12:26:00,
2013-12-22 07:27:00,66.2,65.0,29.98,SW,225,0.0,6.0,96,0.04,,,0.05,Wunderground v.1.15,2013-12-22 12:27:00,
2013-12-22 07:30:00,66.1,64.9,29.98,SSW,210,2.0,2.0,96,0.04,,,0.05,Wunderground v.1.15,2013-12-22 12:30:00,
2013-12-22 07:31:00,66.1,64.9,29.98,SSE,166,0.0,2.0,96,0.04,,,0.05,Wunderground v.1.15,2013-12-22 12:31:00,
2013-12-22 07:32:00,66.1,64.9,29.98,SW,214,2.0,2.0,96,0.04,,,0.05,Wunderground v.1.15,2013-12-22 12:32:00,
2013-12-22 07:36:00,66.1,64.9,29.98,SW,222,3.0,6.0,96,0.00,,,0.05,Wunderground v.1.15,2013-12-22 12:36:00,
2013-12-22 07:37:00,66.1,64.9,29.98,SSW,210,0.0,6.0,96,0.00,,,0.05,Wunderground v.1.15,2013-12-22 12:37:00,
2013-12-22 07:41:00,66.2,65.0,29.98,SW,221,1.0,5.0,96,0.00,,,0.05,Wunderground v.1.15,2013-12-22 12:41:00,
2013-12-22 07:42:00,66.1,64.9,29.98,WSW,255,2.0,5.0,96,0.00,,,0.05,Wunderground v.1.15,2013-12-22 12:42:00,
2013-12-22 07:43:00,66.1,64.9,29.98,WSW,243,1.0,5.0,96,0.00,,,0.05,Wunderground v.1.15,2013-12-22 12:43:00,
2013-12-22 07:46:00,66.1,64.9,29.99,SW,221,2.0,5.0,96,0.00,,,0.05,Wunderground v.1.15,2013-12-22 12:46:00,
2013-12-22 07:47:00,66.1,64.9,29.99,SSW,212,3.0,5.0,96,0.00,,,0.05,Wunderground v.1.15,2013-12-22 12:47:00,
2013-12-22 07:48:00,66.1,64.9,29.99,SW,216,2.0,5.0,96,0.00,,,0.05,Wunderground v.1.15,2013-12-22 12:48:00,
2013-12-22 07:51:00,66.1,65.2,29.99,SW,232,3.0,4.0,97,0.00,,,0.05,Wunderground v.1.15,2013-12-22 12:51:00,
2013-12-22 07:52:00,66.1,65.2,29.99,SW,216,1.0,4.0,97,0.00,,,0.05,Wunderground v.1.15,2013-12-22 12:52:00,
2013-12-22 07:53:00,66.1,65.2,29.99,SSW,210,0.0,4.0,97,0.00,,,0.05,Wunderground v.1.15,2013-12-22 12:53:00,
2013-12-22 07:56:00,66.1,65.2,29.99,SW,229,2.0,4.0,97,0.00,,,0.05,Wunderground v.1.15,2013-12-22 12:56:00,
2013-12-22 07:57:00,66.1,65.2,29.99,SSW,210,1.0,4.0,97,0.00,,,0.05,Wunderground v.1.15,2013-12-22 12:57:00,
2013-12-22 07:58:00,66.1,65.2,29.99,SW,225,1.0,4.0,97,0.00,,,0.05,Wunderground v.1.15,2013-12-22 12:58:00,
2013-12-22 08:01:00,66.1,65.2,29.99,SW,225,4.0,4.0,97,0.00,,,0.05,Wunderground v.1.15,2013-12-22 13:01:00,
2013-12-22 08:02:00,66.1,65.2,29.99,SW,221,6.0,8.0,97,0.00,,,0.05,Wunderground v.1.15,2013-12-22 13:02:00,
2013-12-22 08:03:00,66.1,65.2,30.00,SW,216,3.0,8.0,97,0.00,,,0.06,Wunderground v.1.15,2013-12-22 13:03:00,
2013-12-22 08:05:00,66.1,65.2,29.99,SW,218,3.0,8.0,97,0.00,,,0.06,Wunderground v.1.15,2013-12-22 13:05:00,
2013-12-22 08:06:00,66.1,65.2,29.99,WSW,248,3.0,8.0,97,0.00,,,0.06,Wunderground v.1.15,2013-12-22 13:06:00,
2013-12-22 08:07:00,66.1,65.2,30.00,SSW,212,1.0,8.0,97,0.00,,,0.06,Wunderground v.1.15,2013-12-22 13:07:00,
2013-12-22 08:08:00,66.1,65.2,29.99,ESE,123,1.0,8.0,97,0.00,,,0.06,Wunderground v.1.15,2013-12-22 13:08:00,
2013-12-22 08:09:00,66.1,65.2,29.99,SW,221,2.0,8.0,97,0.00,,,0.06,Wunderground v.1.15,2013-12-22 13:09:00,
2013-12-22 08:10:00,66.1,65.2,29.99,SSW,212,1.0,2.0,97,0.00,,,0.06,Wunderground v.1.15,2013-12-22 13:10:00,
2013-12-22 08:11:00,66.1,65.2,29.99,SW,221,4.0,5.0,97,0.00,,,0.06,Wunderground v.1.15,2013-12-22 13:11:00,
2013-12-22 08:12:00,66.1,65.2,29.99,WSW,238,2.0,5.0,97,0.00,,,0.06,Wunderground v.1.15,2013-12-22 13:12:00,
2013-12-22 08:13:00,66.1,65.2,29.99,SSW,193,3.0,5.0,97,0.00,,,0.06,Wunderground v.1.15,2013-12-22 13:13:00,
2013-12-22 08:14:00,66.1,65.2,29.99,South,174,5.0,5.0,97,0.00,,,0.06,Wunderground v.1.15,2013-12-22 13:14:00,
2013-12-22 08:15:00,66.1,65.2,29.99,SSW,207,1.0,7.0,97,0.05,,,0.07,Wunderground v.1.15,2013-12-22 13:15:00,
2013-12-22 08:17:00,66.1,65.2,29.99,SW,221,8.0,8.0,97,0.05,,,0.07,Wunderground v.1.15,2013-12-22 13:17:00,
2013-12-22 08:18:00,66.2,65.3,29.99,SW,225,6.0,10.0,97,0.05,,,0.07,Wunderground v.1.15,2013-12-22 13:18:00,
2013-12-22 08:19:00,66.2,65.3,29.99,SW,229,6.0,10.0,97,0.05,,,0.07,Wunderground v.1.15,2013-12-22 13:19:00,
2013-12-22 08:21:00,66.2,65.3,29.99,West,274,2.0,8.0,97,0.05,,,0.07,Wunderground v.1.15,2013-12-22 13:21:00,
2013-12-22 08:22:00,66.2,65.3,29.99,West,260,3.0,8.0,97,0.05,,,0.07,Wunderground v.1.15,2013-12-22 13:22:00,
2013-12-22 08:23:00,66.2,65.3,29.99,SW,217,0.0,8.0,97,0.05,,,0.07,Wunderground v.1.15,2013-12-22 13:23:00,
2013-12-22 08:25:00,66.3,65.4,29.99,South,188,2.0,8.0,97,0.05,,,0.07,Wunderground v.1.15,2013-12-22 13:25:00,
2013-12-22 08:26:00,66.3,65.4,29.99,SW,226,3.0,8.0,97,0.05,,,0.07,Wunderground v.1.15,2013-12-22 13:26:00,
2013-12-22 08:27:00,66.3,65.4,29.99,SW,226,4.0,8.0,97,0.05,,,0.07,Wunderground v.1.15,2013-12-22 13:27:00,
2013-12-22 08:29:00,66.3,65.4,29.99,SSW,208,3.0,8.0,97,0.04,,,0.07,Wunderground v.1.15,2013-12-22 13:29:00,
2013-12-22 08:30:00,66.3,65.4,29.99,SW,221,1.0,4.0,97,0.04,,,0.07,Wunderground v.1.15,2013-12-22 13:30:00,
2013-12-22 08:31:00,66.3,65.4,29.99,WSW,257,3.0,4.0,97,0.00,,,0.07,Wunderground v.1.15,2013-12-22 13:31:00,
2013-12-22 08:32:00,66.3,65.4,29.99,SW,221,4.0,5.0,97,0.00,,,0.07,Wunderground v.1.15,2013-12-22 13:32:00,
2013-12-22 08:34:00,66.3,65.4,29.99,SW,218,4.0,5.0,97,0.00,,,0.07,Wunderground v.1.15,2013-12-22 13:34:00,
2013-12-22 08:35:00,66.3,65.4,29.99,SSW,195,0.0,7.0,97,0.00,,,0.07,Wunderground v.1.15,2013-12-22 13:35:00,
2013-12-22 08:36:00,66.3,65.4,30.00,SW,218,3.0,7.0,97,0.00,,,0.07,Wunderground v.1.15,2013-12-22 13:36:00,
2013-12-22 08:37:00,66.4,65.5,30.00,SSW,210,2.0,7.0,97,0.00,,,0.07,Wunderground v.1.15,2013-12-22 13:37:00,
2013-12-22 08:39:00,66.4,65.5,30.00,South,186,1.0,2.0,97,0.00,,,0.07,Wunderground v.1.15,2013-12-22 13:39:00,
2013-12-22 08:40:00,66.4,65.5,30.00,South,186,0.0,2.0,97,0.00,,,0.07,Wunderground v.1.15,2013-12-22 13:40:00,
2013-12-22 08:42:00,66.4,65.5,30.00,SSW,201,1.0,4.0,97,0.00,,,0.07,Wunderground v.1.15,2013-12-22 13:42:00,
2013-12-22 08:45:00,66.4,65.5,30.00,SW,233,3.0,5.0,97,0.00,,,0.07,Wunderground v.1.15,2013-12-22 13:45:00,
2013-12-22 08:46:00,66.5,65.6,30.00,WSW,241,2.0,5.0,97,0.00,,,0.07,Wunderground v.1.15,2013-12-22 13:46:00,
2013-12-22 08:47:00,66.5,65.6,30.00,South,174,2.0,6.0,97,0.00,,,0.07,Wunderground v.1.15,2013-12-22 13:47:00,
2013-12-22 08:50:00,66.6,65.4,30.00,SW,229,2.0,4.0,96,0.00,,,0.07,Wunderground v.1.15,2013-12-22 13:50:00,
2013-12-22 08:51:00,66.6,65.4,30.00,SW,216,3.0,4.0,96,0.00,,,0.07,Wunderground v.1.15,2013-12-22 13:51:00,
2013-12-22 08:52:00,66.6,65.4,30.00,SSW,210,4.0,5.0,96,0.00,,,0.07,Wunderground v.1.15,2013-12-22 13:52:00,
2013-12-22 08:55:00,66.7,65.5,30.00,SSW,203,7.0,11.0,96,0.00,,,0.07,Wunderground v.1.15,2013-12-22 13:55:00,
2013-12-22 08:56:00,66.7,65.5,30.00,SW,222,3.0,11.0,96,0.00,,,0.07,Wunderground v.1.15,2013-12-22 13:56:00,
2013-12-22 08:57:00,66.8,65.6,30.01,WSW,238,1.0,11.0,96,0.00,,,0.07,Wunderground v.1.15,2013-12-22 13:57:00,
2013-12-22 08:58:00,66.8,65.6,30.01,SSW,203,1.0,11.0,96,0.00,,,0.07,Wunderground v.1.15,2013-12-22 13:58:00,
2013-12-22 09:01:00,66.9,65.7,30.01,SSW,200,2.0,9.0,96,0.00,,,0.07,Wunderground v.1.15,2013-12-22 14:01:00,
2013-12-22 09:03:00,67.0,65.8,30.01,SW,232,2.0,9.0,96,0.00,,,0.07,Wunderground v.1.15,2013-12-22 14:03:00,
2013-12-22 09:06:00,67.1,65.9,30.01,WSW,243,4.0,9.0,96,0.00,,,0.07,Wunderground v.1.15,2013-12-22 14:06:00,
2013-12-22 09:07:00,67.1,65.9,30.01,SW,225,6.0,9.0,96,0.00,,,0.07,Wunderground v.1.15,2013-12-22 14:07:00,
2013-12-22 09:08:00,67.1,65.6,30.01,SSW,207,3.0,10.0,95,0.00,,,0.07,Wunderground v.1.15,2013-12-22 14:08:00,
2013-12-22 09:11:00,67.1,65.6,30.01,South,187,2.0,4.0,95,0.00,,,0.07,Wunderground v.1.15,2013-12-22 14:11:00,
2013-12-22 09:12:00,67.1,65.6,30.01,South,191,4.0,7.0,95,0.00,,,0.07,Wunderground v.1.15,2013-12-22 14:12:00,
2013-12-22 09:13:00,67.1,65.6,30.01,SSW,212,4.0,7.0,95,0.00,,,0.07,Wunderground v.1.15,2013-12-22 14:13:00,
2013-12-22 09:16:00,67.2,65.7,30.01,SW,215,3.0,7.0,95,0.00,,,0.07,Wunderground v.1.15,2013-12-22 14:16:00,
2013-12-22 09:17:00,67.2,65.7,30.01,West,266,2.0,7.0,95,0.00,,,0.07,Wunderground v.1.15,2013-12-22 14:17:00,
2013-12-22 09:18:00,67.2,65.7,30.01,SW,215,3.0,7.0,95,0.00,,,0.07,Wunderground v.1.15,2013-12-22 14:18:00,
2013-12-22 09:19:00,67.2,65.7,30.01,SW,232,4.0,7.0,95,0.00,,,0.07,Wunderground v.1.15,2013-12-22 14:19:00,
2013-12-22 09:21:00,67.3,65.8,30.01,SW,235,6.0,6.0,95,0.00,,,0.07,Wunderground v.1.15,2013-12-22 14:21:00,
2013-12-22 09:22:00,67.3,65.8,30.01,WSW,254,6.0,7.0,95,0.00,,,0.07,Wunderground v.1.15,2013-12-22 14:22:00,
2013-12-22 09:23:00,67.3,65.5,30.01,SW,224,4.0,9.0,94,0.00,,,0.07,Wunderground v.1.15,2013-12-22 14:23:00,
2013-12-22 09:24:00,67.3,65.5,30.02,SW,232,4.0,9.0,94,0.00,,,0.07,Wunderground v.1.15,2013-12-22 14:24:00,
2013-12-22 09:26:00,67.3,65.5,30.02,South,172,3.0,9.0,94,0.00,,,0.07,Wunderground v.1.15,2013-12-22 14:26:00,
2013-12-22 09:27:00,67.4,65.6,30.02,South,187,3.0,9.0,94,0.00,,,0.07,Wunderground v.1.15,2013-12-22 14:27:00,
2013-12-22 09:28:00,67.4,65.6,30.01,SSW,203,1.0,9.0,94,0.00,,,0.07,Wunderground v.1.15,2013-12-22 14:28:00,
2013-12-22 09:29:00,67.4,65.6,30.02,SW,226,2.0,9.0,94,0.00,,,0.07,Wunderground v.1.15,2013-12-22 14:29:00,
2013-12-22 09:31:00,67.5,65.7,30.02,SW,226,6.0,8.0,94,0.00,,,0.07,Wunderground v.1.15,2013-12-22 14:31:00,
2013-12-22 09:32:00,67.5,65.7,30.02,SW,219,4.0,8.0,94,0.00,,,0.07,Wunderground v.1.15,2013-12-22 14:32:00,
2013-12-22 09:33:00,67.5,65.7,30.02,SSW,200,2.0,8.0,94,0.00,,,0.07,Wunderground v.1.15,2013-12-22 14:33:00,
2013-12-22 09:34:00,67.6,65.8,30.02,SSE,152,0.0,8.0,94,0.00,,,0.07,Wunderground v.1.15,2013-12-22 14:34:00,
2013-12-22 09:35:00,67.6,65.8,30.02,SSW,207,4.0,8.0,94,0.00,,,0.07,Wunderground v.1.15,2013-12-22 14:35:00,
2013-12-22 09:36:00,67.6,65.8,30.02,SW,235,5.0,8.0,94,0.00,,,0.07,Wunderground v.1.15,2013-12-22 14:36:00,
2013-12-22 09:37:00,67.6,65.8,30.02,SSW,195,2.0,8.0,94,0.00,,,0.07,Wunderground v.1.15,2013-12-22 14:37:00,
2013-12-22 09:38:00,67.7,65.9,30.02,SW,222,4.0,8.0,94,0.00,,,0.07,Wunderground v.1.15,2013-12-22 14:38:00,
2013-12-22 09:39:00,67.7,65.9,30.02,SW,217,4.0,8.0,94,0.00,,,0.07,Wunderground v.1.15,2013-12-22 14:39:00,
2013-12-22 09:40:00,67.8,65.7,30.02,SW,228,2.0,3.0,93,0.00,,,0.07,Wunderground v.1.15,2013-12-22 14:40:00,
2013-12-22 09:42:00,67.8,66.0,30.02,South,176,1.0,6.0,94,0.00,,,0.07,Wunderground v.1.15,2013-12-22 14:42:00,
2013-12-22 09:44:00,67.9,66.1,30.02,SW,218,2.0,6.0,94,0.00,,,0.07,Wunderground v.1.15,2013-12-22 14:44:00,
2013-12-22 09:45:00,67.9,65.8,30.02,SSW,203,3.0,6.0,93,0.00,,,0.07,Wunderground v.1.15,2013-12-22 14:45:00,
2013-12-22 09:47:00,68.0,65.9,30.02,SSE,148,2.0,6.0,93,0.00,,,0.07,Wunderground v.1.15,2013-12-22 14:47:00,
2013-12-22 09:49:00,68.0,65.9,30.03,SSW,200,2.0,6.0,93,0.00,,,0.07,Wunderground v.1.15,2013-12-22 14:49:00,
2013-12-22 09:50:00,68.0,65.9,30.03,WNW,300,1.0,2.0,93,0.00,,,0.07,Wunderground v.1.15,2013-12-22 14:50:00,
2013-12-22 09:51:00,68.1,66.0,30.02,SW,228,1.0,2.0,93,0.00,,,0.07,Wunderground v.1.15,2013-12-22 14:51:00,
2013-12-22 09:52:00,68.2,66.1,30.03,SW,224,4.0,4.0,93,0.00,,,0.07,Wunderground v.1.15,2013-12-22 14:52:00,
2013-12-22 09:54:00,68.2,66.1,30.02,East,82,2.0,7.0,93,0.00,,,0.07,Wunderground v.1.15,2013-12-22 14:54:00,
2013-12-22 09:55:00,68.2,66.1,30.03,SW,221,7.0,9.0,93,0.00,,,0.07,Wunderground v.1.15,2013-12-22 14:55:00,
2013-12-22 09:56:00,68.2,66.1,30.03,SSW,197,1.0,9.0,93,0.00,,,0.07,Wunderground v.1.15,2013-12-22 14:56:00,
2013-12-22 09:57:00,68.3,66.2,30.03,SE,136,0.0,9.0,93,0.00,,,0.07,Wunderground v.1.15,2013-12-22 14:57:00,
2013-12-22 09:58:00,68.3,66.2,30.03,SSW,197,1.0,9.0,93,0.00,,,0.07,Wunderground v.1.15,2013-12-22 14:58:00,
2013-12-22 10:00:00,68.3,66.2,30.03,SW,226,5.0,6.0,93,0.00,,,0.07,Wunderground v.1.15,2013-12-22 15:00:00,
2013-12-22 10:01:00,68.3,66.2,30.03,South,188,3.0,6.0,93,0.00,,,0.07,Wunderground v.1.15,2013-12-22 15:01:00,
2013-12-22 10:03:00,68.3,66.2,30.03,South,191,3.0,7.0,93,0.00,,,0.07,Wunderground v.1.15,2013-12-22 15:03:00,
2013-12-22 10:05:00,68.3,66.2,30.03,WSW,254,4.0,7.0,93,0.00,,,0.07,Wunderground v.1.15,2013-12-22 15:05:00,
2013-12-22 10:06:00,68.3,66.2,30.03,South,169,2.0,7.0,93,0.00,,,0.07,Wunderground v.1.15,2013-12-22 15:06:00,
2013-12-22 10:08:00,68.3,66.2,30.03,SW,222,3.0,7.0,93,0.00,,,0.07,Wunderground v.1.15,2013-12-22 15:08:00,
2013-12-22 10:10:00,68.4,66.3,30.03,SSW,212,2.0,4.0,93,0.00,,,0.07,Wunderground v.1.15,2013-12-22 15:10:00,
2013-12-22 10:11:00,68.4,66.3,30.03,SSW,197,2.0,8.0,93,0.00,,,0.07,Wunderground v.1.15,2013-12-22 15:11:00,
2013-12-22 10:12:00,68.4,66.3,30.03,SSW,198,2.0,8.0,93,0.00,,,0.07,Wunderground v.1.15,2013-12-22 15:12:00,
2013-12-22 10:13:00,68.4,66.3,30.03,SSW,193,2.0,8.0,93,0.00,,,0.07,Wunderground v.1.15,2013-12-22 15:13:00,
2013-12-22 10:14:00,68.4,66.3,30.03,SSW,204,1.0,8.0,93,0.00,,,0.07,Wunderground v.1.15,2013-12-22 15:14:00,
2013-12-22 10:16:00,68.5,66.4,30.03,SSW,195,4.0,8.0,93,0.00,,,0.07,Wunderground v.1.15,2013-12-22 15:16:00,
2013-12-22 10:17:00,68.5,66.4,30.03,SSW,203,2.0,11.0,93,0.00,,,0.07,Wunderground v.1.15,2013-12-22 15:17:00,
2013-12-22 10:18:00,68.6,66.5,30.02,SSW,200,2.0,11.0,93,0.00,,,0.07,Wunderground v.1.15,2013-12-22 15:18:00,
2013-12-22 10:19:00,68.6,66.5,30.03,SSW,200,2.0,11.0,93,0.00,,,0.07,Wunderground v.1.15,2013-12-22 15:19:00,
2013-12-22 10:21:00,68.7,66.6,30.03,ESE,117,0.0,3.0,93,0.00,,,0.07,Wunderground v.1.15,2013-12-22 15:21:00,
2013-12-22 10:22:00,68.7,66.6,30.02,SW,219,2.0,3.0,93,0.00,,,0.07,Wunderground v.1.15,2013-12-22 15:22:00,
2013-12-22 10:23:00,68.7,66.6,30.03,SSW,197,0.0,3.0,93,0.00,,,0.07,Wunderground v.1.15,2013-12-22 15:23:00,
2013-12-22 10:24:00,68.8,66.7,30.03,South,186,3.0,4.0,93,0.00,,,0.07,Wunderground v.1.15,2013-12-22 15:24:00,
2013-12-22 10:26:00,68.9,66.8,30.03,SSW,193,3.0,4.0,93,0.00,,,0.07,Wunderground v.1.15,2013-12-22 15:26:00,
2013-12-22 10:27:00,68.9,66.8,30.03,SSW,196,2.0,4.0,93,0.00,,,0.07,Wunderground v.1.15,2013-12-22 15:27:00,
2013-12-22 10:28:00,68.9,66.8,30.02,SW,215,1.0,4.0,93,0.00,,,0.07,Wunderground v.1.15,2013-12-22 15:28:00,
2013-12-22 10:29:00,69.0,66.9,30.02,SW,218,2.0,4.0,93,0.00,,,0.07,Wunderground v.1.15,2013-12-22 15:29:00,
2013-12-22 10:31:00,69.0,66.6,30.02,WSW,240,4.0,9.0,92,0.00,,,0.07,Wunderground v.1.15,2013-12-22 15:31:00,
2013-12-22 10:32:00,69.0,66.6,30.02,SSW,212,5.0,9.0,92,0.00,,,0.07,Wunderground v.1.15,2013-12-22 15:32:00,
2013-12-22 10:33:00,69.1,66.7,30.02,South,177,1.0,9.0,92,0.00,,,0.07,Wunderground v.1.15,2013-12-22 15:33:00,
2013-12-22 10:34:00,69.1,66.7,30.02,SW,235,1.0,9.0,92,0.00,,,0.07,Wunderground v.1.15,2013-12-22 15:34:00,
2013-12-22 10:37:00,69.1,66.7,30.02,SW,235,1.0,9.0,92,0.00,,,0.07,Wunderground v.1.15,2013-12-22 15:37:00,
2013-12-22 10:38:00,69.1,66.7,30.03,South,187,3.0,9.0,92,0.00,,,0.07,Wunderground v.1.15,2013-12-22 15:38:00,
2013-12-22 10:39:00,69.1,66.7,30.03,SSE,148,1.0,9.0,92,0.00,,,0.07,Wunderground v.1.15,2013-12-22 15:39:00,
2013-12-22 10:42:00,69.2,66.8,30.03,SSW,200,4.0,10.0,92,0.00,,,0.07,Wunderground v.1.15,2013-12-22 15:42:00,
2013-12-22 10:44:00,69.2,66.8,30.02,SSW,198,4.0,10.0,92,0.00,,,0.07,Wunderground v.1.15,2013-12-22 15:44:00,
2013-12-22 10:45:00,69.3,66.9,30.02,South,181,2.0,10.0,92,0.00,,,0.07,Wunderground v.1.15,2013-12-22 15:45:00,
2013-12-22 10:47:00,69.3,66.9,30.02,South,174,1.0,10.0,92,0.00,,,0.07,Wunderground v.1.15,2013-12-22 15:47:00,
2013-12-22 10:48:00,69.3,66.9,30.02,South,174,0.0,10.0,92,0.00,,,0.07,Wunderground v.1.15,2013-12-22 15:48:00,
2013-12-22 10:49:00,69.4,67.0,30.02,SW,219,1.0,10.0,92,0.00,,,0.07,Wunderground v.1.15,2013-12-22 15:49:00,
2013-12-22 10:50:00,69.4,67.0,30.02,WSW,248,5.0,6.0,92,0.00,,,0.07,Wunderground v.1.15,2013-12-22 15:50:00,
2013-12-22 10:52:00,69.5,67.1,30.03,SW,228,8.0,8.0,92,0.00,,,0.07,Wunderground v.1.15,2013-12-22 15:52:00,
2013-12-22 10:53:00,69.5,67.1,30.02,SSW,212,3.0,8.0,92,0.00,,,0.07,Wunderground v.1.15,2013-12-22 15:53:00,
2013-12-22 10:54:00,69.5,67.1,30.02,SSW,211,4.0,8.0,92,0.00,,,0.07,Wunderground v.1.15,2013-12-22 15:54:00,
2013-12-22 10:55:00,69.5,66.8,30.02,SE,128,1.0,8.0,91,0.00,,,0.07,Wunderground v.1.15,2013-12-22 15:55:00,
2013-12-22 10:58:00,69.6,66.9,30.02,SW,218,1.0,8.0,91,0.00,,,0.07,Wunderground v.1.15,2013-12-22 15:58:00,
2013-12-22 10:59:00,69.6,66.9,30.02,South,188,2.0,10.0,91,0.00,,,0.07,Wunderground v.1.15,2013-12-22 15:59:00,
2013-12-22 11:00:00,69.7,67.0,30.02,SE,146,3.0,4.0,91,0.00,,,0.07,Wunderground v.1.15,2013-12-22 16:00:00,
2013-12-22 11:03:00,69.8,67.1,30.02,SW,225,3.0,4.0,91,0.00,,,0.07,Wunderground v.1.15,2013-12-22 16:03:00,
2013-12-22 11:04:00,69.8,66.7,30.02,South,172,0.0,4.0,90,0.00,,,0.07,Wunderground v.1.15,2013-12-22 16:04:00,
2013-12-22 11:05:00,69.9,66.8,30.02,SW,222,2.0,4.0,90,0.00,,,0.07,Wunderground v.1.15,2013-12-22 16:05:00,
2013-12-22 11:08:00,69.9,66.8,30.02,SSE,155,4.0,7.0,90,0.00,,,0.07,Wunderground v.1.15,2013-12-22 16:08:00,
2013-12-22 11:09:00,69.9,66.8,30.01,SW,219,2.0,7.0,90,0.00,,,0.07,Wunderground v.1.15,2013-12-22 16:09:00,
2013-12-22 11:10:00,70.0,66.9,30.02,WSW,242,4.0,10.0,90,0.00,,,0.07,Wunderground v.1.15,2013-12-22 16:10:00,
2013-12-22 11:11:00,70.0,66.9,30.02,SW,229,7.0,10.0,90,0.00,,,0.07,Wunderground v.1.15,2013-12-22 16:11:00,
2013-12-22 11:14:00,70.0,66.9,30.01,WSW,240,5.0,10.0,90,0.00,,,0.07,Wunderground v.1.15,2013-12-22 16:14:00,
2013-12-22 11:15:00,70.0,66.9,30.02,SW,218,3.0,10.0,90,0.00,,,0.07,Wunderground v.1.15,2013-12-22 16:15:00,
2013-12-22 11:16:00,70.1,67.0,30.02,SE,142,1.0,10.0,90,0.00,,,0.07,Wunderground v.1.15,2013-12-22 16:16:00,
2013-12-22 11:19:00,70.2,67.1,30.02,SW,217,3.0,12.0,90,0.00,,,0.07,Wunderground v.1.15,2013-12-22 16:19:00,
2013-12-22 11:20:00,70.2,66.8,30.02,WSW,245,7.0,7.0,89,0.00,,,0.07,Wunderground v.1.15,2013-12-22 16:20:00,
2013-12-22 11:21:00,70.2,66.8,30.02,SSW,204,4.0,7.0,89,0.00,,,0.07,Wunderground v.1.15,2013-12-22 16:21:00,
2013-12-22 11:24:00,70.3,66.9,30.02,SW,218,5.0,7.0,89,0.00,,,0.07,Wunderground v.1.15,2013-12-22 16:24:00,
2013-12-22 11:25:00,70.3,66.9,30.02,SSW,207,4.0,7.0,89,0.00,,,0.07,Wunderground v.1.15,2013-12-22 16:25:00,
2013-12-22 11:26:00,70.4,67.0,30.02,SSW,207,5.0,7.0,89,0.00,,,0.07,Wunderground v.1.15,2013-12-22 16:26:00,
2013-12-22 11:27:00,70.4,67.0,30.02,SW,228,5.0,7.0,89,0.00,,,0.07,Wunderground v.1.15,2013-12-22 16:27:00,
2013-12-22 11:29:00,70.4,67.0,30.02,West,260,7.0,9.0,89,0.00,,,0.07,Wunderground v.1.15,2013-12-22 16:29:00,
2013-12-22 11:30:00,70.4,66.7,30.02,SSW,201,6.0,6.0,88,0.00,,,0.07,Wunderground v.1.15,2013-12-22 16:30:00,
2013-12-22 11:31:00,70.4,67.0,30.02,ENE,72,3.0,6.0,89,0.00,,,0.07,Wunderground v.1.15,2013-12-22 16:31:00,
2013-12-22 11:32:00,70.5,66.8,30.02,West,260,4.0,6.0,88,0.00,,,0.07,Wunderground v.1.15,2013-12-22 16:32:00,
2013-12-22 11:34:00,70.5,66.8,30.02,SSW,212,1.0,6.0,88,0.00,,,0.07,Wunderground v.1.15,2013-12-22 16:34:00,
2013-12-22 11:35:00,70.5,66.8,30.02,SW,222,3.0,6.0,88,0.00,,,0.07,Wunderground v.1.15,2013-12-22 16:35:00,
2013-12-22 11:36:00,70.6,66.9,30.02,SSE,167,6.0,10.0,88,0.00,,,0.07,Wunderground v.1.15,2013-12-22 16:36:00,
2013-12-22 11:38:00,70.6,66.9,30.02,SW,224,4.0,10.0,88,0.00,,,0.07,Wunderground v.1.15,2013-12-22 16:38:00,
2013-12-22 11:39:00,70.7,67.0,30.02,SSW,209,1.0,10.0,88,0.00,,,0.07,Wunderground v.1.15,2013-12-22 16:39:00,
2013-12-22 11:40:00,70.7,67.0,30.02,South,184,2.0,5.0,88,0.00,,,0.07,Wunderground v.1.15,2013-12-22 16:40:00,
2013-12-22 11:41:00,70.7,67.0,30.02,SSW,193,2.0,8.0,88,0.00,,,0.07,Wunderground v.1.15,2013-12-22 16:41:00,
2013-12-22 11:43:00,70.8,66.7,30.02,SSW,211,6.0,9.0,87,0.00,,,0.07,Wunderground v.1.15,2013-12-22 16:43:00,
2013-12-22 11:44:00,70.8,66.7,30.02,SSW,212,2.0,9.0,87,0.00,,,0.07,Wunderground v.1.15,2013-12-22 16:44:00,
2013-12-22 11:45:00,70.9,66.8,30.01,SSW,198,2.0,9.0,87,0.00,,,0.07,Wunderground v.1.15,2013-12-22 16:45:00,
2013-12-22 11:46:00,70.9,66.8,30.01,ENE,64,1.0,9.0,87,0.00,,,0.07,Wunderground v.1.15,2013-12-22 16:46:00,
2013-12-22 11:47:00,70.9,66.8,30.01,SSW,200,3.0,9.0,87,0.00,,,0.07,Wunderground v.1.15,2013-12-22 16:47:00,
2013-12-22 11:48:00,70.8,66.7,30.02,SSW,211,1.0,9.0,87,0.00,,,0.07,Wunderground v.1.15,2013-12-22 16:48:00,
2013-12-22 11:50:00,70.8,66.7,30.02,SSW,201,3.0,3.0,87,0.00,,,0.07,Wunderground v.1.15,2013-12-22 16:50:00,
2013-12-22 11:51:00,70.8,66.7,30.02,South,191,4.0,10.0,87,0.00,,,0.07,Wunderground v.1.15,2013-12-22 16:51:00,
2013-12-22 11:52:00,70.8,66.4,30.01,SW,225,6.0,10.0,86,0.00,,,0.07,Wunderground v.1.15,2013-12-22 16:52:00,
2013-12-22 11:53:00,70.8,66.4,30.02,SW,215,2.0,10.0,86,0.00,,,0.07,Wunderground v.1.15,2013-12-22 16:53:00,
2013-12-22 11:55:00,70.8,66.4,30.01,SW,232,6.0,10.0,86,0.00,,,0.07,Wunderground v.1.15,2013-12-22 16:55:00,
2013-12-22 11:56:00,70.7,66.3,30.01,SE,128,1.0,10.0,86,0.00,,,0.07,Wunderground v.1.15,2013-12-22 16:56:00,
2013-12-22 11:57:00,70.7,66.6,30.01,South,191,1.0,10.0,87,0.00,,,0.07,Wunderground v.1.15,2013-12-22 16:57:00,
2013-12-22 11:58:00,70.7,66.6,30.01,East,94,1.0,10.0,87,0.00,,,0.07,Wunderground v.1.15,2013-12-22 16:58:00,
2013-12-22 12:01:00,70.8,66.4,30.01,SW,225,4.0,4.0,86,0.00,,,0.07,Wunderground v.1.15,2013-12-22 17:01:00,
2013-12-22 12:02:00,70.8,66.4,30.01,SSW,211,4.0,4.0,86,0.00,,,0.07,Wunderground v.1.15,2013-12-22 17:02:00,
2013-12-22 12:03:00,70.8,66.7,30.01,SSW,198,2.0,5.0,87,0.00,,,0.07,Wunderground v.1.15,2013-12-22 17:03:00,
2013-12-22 12:04:00,70.8,66.4,30.01,SSW,198,2.0,5.0,86,0.00,,,0.07,Wunderground v.1.15,2013-12-22 17:04:00,
2013-12-22 12:06:00,70.9,66.8,30.00,SE,146,1.0,5.0,87,0.00,,,0.07,Wunderground v.1.15,2013-12-22 17:06:00,
2013-12-22 12:07:00,70.8,66.7,30.00,SSE,155,1.0,5.0,87,0.00,,,0.07,Wunderground v.1.15,2013-12-22 17:07:00,
2013-12-22 12:08:00,70.9,66.8,30.00,SSE,155,1.0,6.0,87,0.00,,,0.07,Wunderground v.1.15,2013-12-22 17:08:00,
2013-12-22 12:09:00,70.9,66.8,30.00,ESE,117,0.0,6.0,87,0.00,,,0.07,Wunderground v.1.15,2013-12-22 17:09:00,
2013-12-22 12:11:00,70.9,66.8,30.00,SSW,210,4.0,4.0,87,0.00,,,0.07,Wunderground v.1.15,2013-12-22 17:11:00,
2013-12-22 12:12:00,71.0,66.9,30.00,SSW,201,1.0,5.0,87,0.00,,,0.07,Wunderground v.1.15,2013-12-22 17:12:00,
2013-12-22 12:13:00,71.0,66.9,30.00,SW,225,4.0,5.0,87,0.00,,,0.07,Wunderground v.1.15,2013-12-22 17:13:00,
2013-12-22 12:15:00,71.1,66.7,29.99,SSW,201,1.0,9.0,86,0.00,,,0.07,Wunderground v.1.15,2013-12-22 17:15:00,
2013-12-22 12:16:00,71.1,66.7,29.99,WSW,238,5.0,9.0,86,0.00,,,0.07,Wunderground v.1.15,2013-12-22 17:16:00,
2013-12-22 12:17:00,71.2,66.8,29.99,SW,229,4.0,9.0,86,0.00,,,0.07,Wunderground v.1.15,2013-12-22 17:17:00,
2013-12-22 12:18:00,71.2,66.8,29.99,SW,216,2.0,9.0,86,0.00,,,0.07,Wunderground v.1.15,2013-12-22 17:18:00,
2013-12-22 12:20:00,71.3,66.9,29.99,WSW,255,3.0,3.0,86,0.00,,,0.07,Wunderground v.1.15,2013-12-22 17:20:00,
2013-12-22 12:21:00,71.4,67.0,29.99,SW,214,3.0,11.0,86,0.00,,,0.07,Wunderground v.1.15,2013-12-22 17:21:00,
2013-12-22 12:22:00,71.4,67.0,29.99,SW,219,6.0,11.0,86,0.00,,,0.07,Wunderground v.1.15,2013-12-22 17:22:00,
2013-12-22 12:23:00,71.4,66.7,29.99,SW,235,7.0,11.0,85,0.00,,,0.07,Wunderground v.1.15,2013-12-22 17:23:00,
2013-12-22 12:24:00,71.4,66.7,29.99,SSW,208,5.0,11.0,85,0.00,,,0.07,Wunderground v.1.15,2013-12-22 17:24:00,
2013-12-22 12:25:00,71.4,66.7,29.99,SSW,204,4.0,11.0,85,0.00,,,0.07,Wunderground v.1.15,2013-12-22 17:25:00,
2013-12-22 12:26:00,71.3,66.6,29.99,WSW,243,5.0,11.0,85,0.00,,,0.07,Wunderground v.1.15,2013-12-22 17:26:00,
2013-12-22 12:27:00,71.3,66.6,29.99,SSW,208,6.0,11.0,85,0.00,,,0.07,Wunderground v.1.15,2013-12-22 17:27:00,
2013-12-22 12:28:00,71.3,66.6,29.99,SSW,194,0.0,11.0,85,0.00,,,0.07,Wunderground v.1.15,2013-12-22 17:28:00,
2013-12-22 12:29:00,71.3,66.6,29.99,South,191,1.0,11.0,85,0.00,,,0.07,Wunderground v.1.15,2013-12-22 17:29:00,
2013-12-22 12:30:00,71.3,66.6,29.99,SSW,200,0.0,4.0,85,0.00,,,0.07,Wunderground v.1.15,2013-12-22 17:30:00,
2013-12-22 12:31:00,71.4,66.7,29.99,SSW,212,4.0,4.0,85,0.00,,,0.07,Wunderground v.1.15,2013-12-22 17:31:00,
2013-12-22 12:32:00,71.4,66.7,29.99,SW,218,3.0,4.0,85,0.00,,,0.07,Wunderground v.1.15,2013-12-22 17:32:00,
2013-12-22 12:33:00,71.3,66.6,29.99,ESE,104,1.0,4.0,85,0.00,,,0.07,Wunderground v.1.15,2013-12-22 17:33:00,
2013-12-22 12:34:00,71.3,66.6,29.99,WSW,257,2.0,4.0,85,0.00,,,0.07,Wunderground v.1.15,2013-12-22 17:34:00,
2013-12-22 12:35:00,71.3,66.6,29.99,SW,229,6.0,8.0,85,0.00,,,0.07,Wunderground v.1.15,2013-12-22 17:35:00,
2013-12-22 12:37:00,71.2,66.5,29.99,SW,217,6.0,8.0,85,0.00,,,0.07,Wunderground v.1.15,2013-12-22 17:37:00,
2013-12-22 12:39:00,71.1,66.4,29.99,SSW,212,3.0,8.0,85,0.00,,,0.07,Wunderground v.1.15,2013-12-22 17:39:00,
2013-12-22 12:40:00,71.0,66.3,29.99,SE,132,1.0,3.0,85,0.00,,,0.07,Wunderground v.1.15,2013-12-22 17:40:00,
2013-12-22 12:41:00,71.0,66.6,29.99,SE,134,0.0,3.0,86,0.00,,,0.07,Wunderground v.1.15,2013-12-22 17:41:00,
2013-12-22 12:42:00,70.9,66.5,29.99,SSE,158,3.0,3.0,86,0.00,,,0.07,Wunderground v.1.15,2013-12-22 17:42:00,
2013-12-22 12:43:00,70.9,66.5,29.98,SW,221,6.0,6.0,86,0.00,,,0.07,Wunderground v.1.15,2013-12-22 17:43:00,
2013-12-22 12:44:00,70.9,66.5,29.98,SE,134,1.0,6.0,86,0.00,,,0.07,Wunderground v.1.15,2013-12-22 17:44:00,
2013-12-22 12:46:00,70.8,66.4,29.99,South,186,2.0,8.0,86,0.00,,,0.07,Wunderground v.1.15,2013-12-22 17:46:00,
2013-12-22 12:47:00,70.8,66.4,29.98,SW,225,3.0,8.0,86,0.00,,,0.07,Wunderground v.1.15,2013-12-22 17:47:00,
2013-12-22 12:49:00,70.7,66.3,29.98,South,170,1.0,8.0,86,0.00,,,0.07,Wunderground v.1.15,2013-12-22 17:49:00,
2013-12-22 12:50:00,70.7,66.3,29.98,SSW,205,7.0,8.0,86,0.00,,,0.07,Wunderground v.1.15,2013-12-22 17:50:00,
2013-12-22 12:51:00,70.6,66.2,29.98,SE,139,2.0,8.0,86,0.00,,,0.07,Wunderground v.1.15,2013-12-22 17:51:00,
2013-12-22 12:52:00,70.6,66.2,29.98,SE,134,1.0,10.0,86,0.00,,,0.07,Wunderground v.1.15,2013-12-22 17:52:00,
2013-12-22 12:54:00,70.5,66.1,29.99,WSW,249,10.0,10.0,86,0.00,,,0.07,Wunderground v.1.15,2013-12-22 17:54:00,
2013-12-22 12:55:00,70.4,66.0,29.99,SW,236,10.0,15.0,86,0.00,,,0.07,Wunderground v.1.15,2013-12-22 17:55:00,
2013-12-22 12:56:00,70.4,66.0,29.98,SW,236,4.0,15.0,86,0.00,,,0.07,Wunderground v.1.15,2013-12-22 17:56:00,
2013-12-22 12:57:00,70.4,66.0,29.98,SSW,212,5.0,15.0,86,0.00,,,0.07,Wunderground v.1.15,2013-12-22 17:57:00,
2013-12-22 13:00:00,70.2,66.1,29.98,South,179,1.0,3.0,87,0.00,,,0.07,Wunderground v.1.15,2013-12-22 18:00:00,
2013-12-22 13:01:00,70.2,66.1,29.99,SSW,212,1.0,4.0,87,0.00,,,0.07,Wunderground v.1.15,2013-12-22 18:01:00,
2013-12-22 13:02:00,70.1,66.0,29.99,SW,229,4.0,5.0,87,0.00,,,0.07,Wunderground v.1.15,2013-12-22 18:02:00,
2013-12-22 13:05:00,69.9,65.9,29.99,West,260,3.0,6.0,87,0.00,,,0.07,Wunderground v.1.15,2013-12-22 18:05:00,
2013-12-22 13:06:00,69.9,65.9,29.99,SW,226,4.0,6.0,87,0.00,,,0.07,Wunderground v.1.15,2013-12-22 18:06:00,
2013-12-22 13:07:00,69.8,66.1,29.99,SW,236,4.0,6.0,88,0.00,,,0.07,Wunderground v.1.15,2013-12-22 18:07:00,
2013-12-22 13:10:00,69.0,63.3,29.99,NNE,30,1.0,3.0,82,0.00,,,0.07,Wunderground v.1.15,2013-12-22 18:10:00,
2013-12-22 13:11:00,68.8,63.1,29.99,South,176,1.0,3.0,82,0.00,,,0.07,Wunderground v.1.15,2013-12-22 18:11:00,
2013-12-22 13:12:00,68.4,62.3,30.00,SW,225,3.0,3.0,81,0.00,,,0.07,Wunderground v.1.15,2013-12-22 18:12:00,
2013-12-22 13:15:00,66.8,61.5,29.99,SW,229,1.0,5.0,83,0.00,,,0.07,Wunderground v.1.15,2013-12-22 18:15:00,
2013-12-22 13:16:00,66.6,61.3,29.99,SW,235,2.0,5.0,83,0.00,,,0.07,Wunderground v.1.15,2013-12-22 18:16:00,
2013-12-22 13:17:00,66.3,61.3,29.99,SW,236,0.0,5.0,84,0.00,,,0.07,Wunderground v.1.15,2013-12-22 18:17:00,
2013-12-22 13:18:00,66.0,61.0,29.99,West,264,3.0,5.0,84,0.00,,,0.07,Wunderground v.1.15,2013-12-22 18:18:00,
2013-12-22 13:21:00,65.2,60.9,30.01,West,269,0.0,2.0,86,0.00,,,0.07,Wunderground v.1.15,2013-12-22 18:21:00,
2013-12-22 13:22:00,65.0,60.7,30.01,NW,315,3.0,3.0,86,0.00,,,0.07,Wunderground v.1.15,2013-12-22 18:22:00,
2013-12-22 13:23:00,64.8,60.8,30.00,NW,312,0.0,3.0,87,0.00,,,0.07,Wunderground v.1.15,2013-12-22 18:23:00,
2013-12-22 13:26:00,64.2,60.6,30.00,WNW,300,3.0,4.0,88,0.00,,,0.07,Wunderground v.1.15,2013-12-22 18:26:00,
2013-12-22 13:27:00,64.0,60.4,30.00,WNW,290,1.0,4.0,88,0.00,,,0.07,Wunderground v.1.15,2013-12-22 18:27:00,
2013-12-22 13:28:00,63.7,60.4,30.01,SW,223,6.0,6.0,89,0.00,,,0.07,Wunderground v.1.15,2013-12-22 18:28:00,
2013-12-22 13:31:00,63.1,60.1,30.01,West,260,3.0,3.0,90,0.00,,,0.08,Wunderground v.1.15,2013-12-22 18:31:00,
2013-12-22 13:32:00,63.0,60.0,30.01,SW,226,3.0,3.0,90,0.34,,,0.09,Wunderground v.1.15,2013-12-22 18:32:00,
2013-12-22 13:33:00,62.8,60.1,30.01,WSW,240,3.0,3.0,91,0.30,,,0.09,Wunderground v.1.15,2013-12-22 18:33:00,
2013-12-22 13:34:00,62.7,60.0,30.01,West,267,3.0,4.0,91,0.26,,,0.10,Wunderground v.1.15,2013-12-22 18:34:00,
2013-12-22 13:36:00,62.4,60.0,30.01,West,276,1.0,4.0,92,0.22,,,0.10,Wunderground v.1.15,2013-12-22 18:36:00,
2013-12-22 13:37:00,62.2,59.8,30.00,NE,50,1.0,4.0,92,0.14,,,0.10,Wunderground v.1.15,2013-12-22 18:37:00,
2013-12-22 13:38:00,62.2,59.8,30.00,ENE,64,0.0,4.0,92,0.13,,,0.10,Wunderground v.1.15,2013-12-22 18:38:00,
2013-12-22 13:39:00,62.0,60.0,30.00,SSE,153,0.0,4.0,93,0.12,,,0.11,Wunderground v.1.15,2013-12-22 18:39:00,
2013-12-22 13:40:00,61.9,59.9,30.00,ENE,77,2.0,2.0,93,0.12,,,0.11,Wunderground v.1.15,2013-12-22 18:40:00,
2013-12-22 13:41:00,61.8,59.8,30.00,North,354,1.0,2.0,93,0.12,,,0.11,Wunderground v.1.15,2013-12-22 18:41:00,
2013-12-22 13:43:00,61.7,59.7,30.00,WNW,290,2.0,2.0,93,0.12,,,0.11,Wunderground v.1.15,2013-12-22 18:43:00,
2013-12-22 13:44:00,61.6,59.6,30.01,WNW,292,1.0,3.0,93,0.11,,,0.11,Wunderground v.1.15,2013-12-22 18:44:00,
2013-12-22 13:45:00,61.5,59.8,30.01,WNW,294,0.0,3.0,94,0.70,,,0.13,Wunderground v.1.15,2013-12-22 18:45:00,
2013-12-22 13:47:00,61.4,59.7,30.01,WNW,297,1.0,3.0,94,0.38,,,0.13,Wunderground v.1.15,2013-12-22 18:47:00,
2013-12-22 13:48:00,61.3,59.6,30.01,WNW,297,0.0,3.0,94,0.22,,,0.13,Wunderground v.1.15,2013-12-22 18:48:00,
2013-12-22 13:49:00,61.3,59.6,30.00,WNW,297,0.0,3.0,94,0.99,,,0.15,Wunderground v.1.15,2013-12-22 18:49:00,
2013-12-22 13:50:00,61.2,59.8,30.01,WNW,293,1.0,1.0,95,0.35,,,0.15,Wunderground v.1.15,2013-12-22 18:50:00,
2013-12-22 13:52:00,61.1,59.7,30.01,WNW,294,0.0,1.0,95,0.23,,,0.16,Wunderground v.1.15,2013-12-22 18:52:00,
2013-12-22 13:53:00,61.1,59.7,30.01,NW,311,0.0,1.0,95,0.23,,,0.16,Wunderground v.1.15,2013-12-22 18:53:00,
2013-12-22 13:54:00,61.0,59.6,30.01,NW,311,0.0,1.0,95,0.20,,,0.16,Wunderground v.1.15,2013-12-22 18:54:00,
2013-12-22 13:55:00,61.1,59.7,30.01,WNW,286,0.0,1.0,95,0.14,,,0.16,Wunderground v.1.15,2013-12-22 18:55:00,
2013-12-22 13:57:00,61.0,59.6,30.01,WNW,286,0.0,1.0,95,0.11,,,0.17,Wunderground v.1.15,2013-12-22 18:57:00,
2013-12-22 13:58:00,60.9,59.5,30.02,WSW,243,0.0,1.0,95,0.46,,,0.18,Wunderground v.1.15,2013-12-22 18:58:00,
2013-12-22 13:59:00,60.9,59.5,30.02,WSW,238,1.0,1.0,95,0.46,,,0.18,Wunderground v.1.15,2013-12-22 18:59:00,
2013-12-22 14:00:00,60.9,59.8,30.02,West,269,1.0,2.0,96,4.54,,,0.22,Wunderground v.1.15,2013-12-22 19:00:00,
2013-12-22 14:01:00,60.9,59.8,30.02,North,6,3.0,3.0,96,3.72,,,0.25,Wunderground v.1.15,2013-12-22 19:01:00,
2013-12-22 14:02:00,60.9,59.8,30.00,WNW,284,1.0,3.0,96,0.66,,,0.26,Wunderground v.1.15,2013-12-22 19:02:00,
2013-12-22 14:04:00,60.8,59.7,30.00,WNW,284,0.0,3.0,96,0.25,,,0.26,Wunderground v.1.15,2013-12-22 19:04:00,
2013-12-22 14:05:00,60.9,59.8,30.01,WNW,284,0.0,3.0,96,0.15,,,0.26,Wunderground v.1.15,2013-12-22 19:05:00,
2013-12-22 14:06:00,60.9,59.8,30.01,East,96,1.0,3.0,96,0.12,,,0.26,Wunderground v.1.15,2013-12-22 19:06:00,
2013-12-22 14:07:00,60.9,59.8,30.02,SSW,207,1.0,3.0,96,0.10,,,0.26,Wunderground v.1.15,2013-12-22 19:07:00,
2013-12-22 14:09:00,60.9,60.0,30.02,SW,231,0.0,3.0,97,0.09,,,0.27,Wunderground v.1.15,2013-12-22 19:09:00,
2013-12-22 14:10:00,60.9,60.0,30.01,SW,231,1.0,1.0,97,0.41,,,0.28,Wunderground v.1.15,2013-12-22 19:10:00,
2013-12-22 14:11:00,60.9,60.0,30.01,SW,231,0.0,1.0,97,0.44,,,0.29,Wunderground v.1.15,2013-12-22 19:11:00,
2013-12-22 14:13:00,60.9,60.0,30.02,SW,231,1.0,1.0,97,0.21,,,0.29,Wunderground v.1.15,2013-12-22 19:13:00,
2013-12-22 14:14:00,60.9,60.0,30.02,SW,229,1.0,2.0,97,0.15,,,0.29,Wunderground v.1.15,2013-12-22 19:14:00,
2013-12-22 14:15:00,60.9,60.0,30.02,SW,233,0.0,2.0,97,0.11,,,0.29,Wunderground v.1.15,2013-12-22 19:15:00,
2013-12-22 14:16:00,60.9,60.0,30.02,SW,233,0.0,2.0,97,0.10,,,0.29,Wunderground v.1.15,2013-12-22 19:16:00,
2013-12-22 14:18:00,60.8,59.9,30.01,SW,233,1.0,2.0,97,0.09,,,0.30,Wunderground v.1.15,2013-12-22 19:18:00,
2013-12-22 14:19:00,60.9,60.0,30.01,SW,233,0.0,2.0,97,0.09,,,0.30,Wunderground v.1.15,2013-12-22 19:19:00,
2013-12-22 14:20:00,60.8,59.9,30.01,SW,233,0.0,0.0,97,0.09,,,0.30,Wunderground v.1.15,2013-12-22 19:20:00,
2013-12-22 14:21:00,60.9,60.0,30.02,SW,221,4.0,4.0,97,0.09,,,0.30,Wunderground v.1.15,2013-12-22 19:21:00,
2013-12-22 14:24:00,60.9,60.0,30.02,West,280,2.0,4.0,97,0.57,,,0.32,Wunderground v.1.15,2013-12-22 19:24:00,
2013-12-22 14:25:00,60.9,60.0,30.02,WSW,246,3.0,4.0,97,0.74,,,0.32,Wunderground v.1.15,2013-12-22 19:25:00,
2013-12-22 14:26:00,60.9,60.0,30.02,WSW,250,3.0,4.0,97,1.48,,,0.35,Wunderground v.1.15,2013-12-22 19:26:00,
2013-12-22 14:27:00,60.9,60.0,30.02,SW,222,2.0,4.0,97,1.47,,,0.36,Wunderground v.1.15,2013-12-22 19:27:00,
2013-12-22 14:29:00,61.0,60.1,30.01,SSE,148,1.0,4.0,97,0.51,,,0.40,Wunderground v.1.15,2013-12-22 19:29:00,
2013-12-22 14:30:00,60.9,60.0,30.01,South,172,3.0,3.0,97,0.30,,,0.40,Wunderground v.1.15,2013-12-22 19:30:00,
2013-12-22 14:31:00,61.0,60.1,30.01,SW,225,4.0,4.0,97,0.21,,,0.40,Wunderground v.1.15,2013-12-22 19:31:00,
2013-12-22 14:32:00,61.0,60.1,30.02,WSW,238,2.0,4.0,97,0.17,,,0.40,Wunderground v.1.15,2013-12-22 19:32:00,
2013-12-22 14:35:00,61.0,60.1,30.01,SW,225,1.0,4.0,97,1.77,,,0.45,Wunderground v.1.15,2013-12-22 19:35:00,
2013-12-22 14:36:00,61.1,60.2,30.01,SW,232,2.0,4.0,97,1.21,,,0.47,Wunderground v.1.15,2013-12-22 19:36:00,
2013-12-22 14:37:00,61.1,60.2,30.02,SSW,212,2.0,4.0,97,0.75,,,0.48,Wunderground v.1.15,2013-12-22 19:37:00,
2013-12-22 14:38:00,61.0,60.1,30.02,SSW,205,1.0,4.0,97,0.88,,,0.50,Wunderground v.1.15,2013-12-22 19:38:00,
2013-12-22 14:40:00,61.0,60.1,30.02,WSW,250,2.0,2.0,97,0.56,,,0.51,Wunderground v.1.15,2013-12-22 19:40:00,
2013-12-22 14:41:00,61.1,60.2,30.02,WSW,238,2.0,3.0,97,0.75,,,0.52,Wunderground v.1.15,2013-12-22 19:41:00,
2013-12-22 14:42:00,61.1,60.2,30.01,SW,215,2.0,4.0,97,0.91,,,0.54,Wunderground v.1.15,2013-12-22 19:42:00,
2013-12-22 14:43:00,61.0,60.1,30.01,SW,224,1.0,4.0,97,1.33,,,0.57,Wunderground v.1.15,2013-12-22 19:43:00,
2013-12-22 14:45:00,61.0,60.1,30.02,SSW,204,0.0,4.0,97,1.74,,,0.61,Wunderground v.1.15,2013-12-22 19:45:00,
2013-12-22 14:46:00,61.1,60.2,30.02,SSW,204,0.0,4.0,97,1.74,,,0.62,Wunderground v.1.15,2013-12-22 19:46:00,
2013-12-22 14:47:00,61.1,60.2,30.02,SW,221,4.0,4.0,97,0.81,,,0.63,Wunderground v.1.15,2013-12-22 19:47:00,
2013-12-22 14:49:00,61.0,60.1,30.02,SW,219,1.0,4.0,97,0.50,,,0.64,Wunderground v.1.15,2013-12-22 19:49:00,
2013-12-22 14:50:00,61.0,60.1,30.01,SSW,198,0.0,2.0,97,0.36,,,0.65,Wunderground v.1.15,2013-12-22 19:50:00,
2013-12-22 14:51:00,61.0,60.1,30.01,WSW,256,2.0,2.0,97,0.33,,,0.65,Wunderground v.1.15,2013-12-22 19:51:00,
2013-12-22 14:52:00,61.0,60.1,30.01,SW,228,0.0,3.0,97,0.33,,,0.66,Wunderground v.1.15,2013-12-22 19:52:00,
2013-12-22 14:54:00,61.1,60.2,30.00,SSW,205,2.0,3.0,97,0.20,,,0.66,Wunderground v.1.15,2013-12-22 19:54:00,
2013-12-22 14:55:00,61.1,60.2,30.00,SW,218,1.0,3.0,97,0.18,,,0.67,Wunderground v.1.15,2013-12-22 19:55:00,
2013-12-22 14:56:00,61.1,60.2,30.01,SW,218,1.0,3.0,97,0.18,,,0.67,Wunderground v.1.15,2013-12-22 19:56:00,
2013-12-22 14:57:00,61.1,60.2,30.01,SSW,212,2.0,3.0,97,0.26,,,0.68,Wunderground v.1.15,2013-12-22 19:57:00,
2013-12-22 14:59:00,61.1,60.2,30.00,SSW,204,1.0,3.0,97,0.23,,,0.68,Wunderground v.1.15,2013-12-22 19:59:00,
2013-12-22 15:01:00,61.1,60.2,30.00,SW,221,1.0,1.0,97,0.21,,,0.69,Wunderground v.1.15,2013-12-22 20:01:00,
2013-12-22 15:02:00,61.1,60.2,30.01,SW,218,6.0,6.0,97,0.21,,,0.69,Wunderground v.1.15,2013-12-22 20:02:00,
2013-12-22 15:03:00,61.1,60.2,30.01,SW,229,4.0,6.0,97,0.17,,,0.69,Wunderground v.1.15,2013-12-22 20:03:00,
2013-12-22 15:04:00,61.2,60.3,30.01,SSW,207,1.0,6.0,97,0.14,,,0.70,Wunderground v.1.15,2013-12-22 20:04:00,
2013-12-22 15:06:00,61.2,60.3,30.01,SW,217,2.0,6.0,97,0.14,,,0.70,Wunderground v.1.15,2013-12-22 20:06:00,
2013-12-22 15:07:00,61.3,60.4,30.01,SW,217,1.0,6.0,97,0.14,,,0.70,Wunderground v.1.15,2013-12-22 20:07:00,
2013-12-22 15:08:00,61.3,60.4,30.01,SW,221,2.0,6.0,97,0.14,,,0.70,Wunderground v.1.15,2013-12-22 20:08:00,
2013-12-22 15:09:00,61.3,60.4,30.01,SW,235,0.0,6.0,97,0.11,,,0.70,Wunderground v.1.15,2013-12-22 20:09:00,
2013-12-22 15:11:00,61.3,60.4,30.01,SW,229,3.0,3.0,97,0.09,,,0.71,Wunderground v.1.15,2013-12-22 20:11:00,
2013-12-22 15:12:00,61.3,60.4,30.01,SW,235,1.0,3.0,97,0.09,,,0.71,Wunderground v.1.15,2013-12-22 20:12:00,
2013-12-22 15:13:00,61.3,60.4,30.01,SW,235,1.0,3.0,97,0.09,,,0.71,Wunderground v.1.15,2013-12-22 20:13:00,
2013-12-22 15:14:00,61.4,60.5,30.01,WSW,250,2.0,3.0,97,0.09,,,0.71,Wunderground v.1.15,2013-12-22 20:14:00,
2013-12-22 15:15:00,61.4,60.5,30.01,SW,233,1.0,3.0,97,0.09,,,0.71,Wunderground v.1.15,2013-12-22 20:15:00,
2013-12-22 15:16:00,61.4,60.5,30.01,SW,235,2.0,3.0,97,0.09,,,0.71,Wunderground v.1.15,2013-12-22 20:16:00,
2013-12-22 15:17:00,61.4,60.5,30.00,WSW,252,0.0,3.0,97,0.08,,,0.71,Wunderground v.1.15,2013-12-22 20:17:00,
2013-12-22 15:18:00,61.4,60.5,30.00,WSW,246,1.0,3.0,97,0.08,,,0.71,Wunderground v.1.15,2013-12-22 20:18:00,
2013-12-22 15:19:00,61.4,60.5,30.01,WSW,243,1.0,3.0,97,0.07,,,0.71,Wunderground v.1.15,2013-12-22 20:19:00,
2013-12-22 15:20:00,61.4,60.5,30.01,SW,229,0.0,1.0,97,0.06,,,0.71,Wunderground v.1.15,2013-12-22 20:20:00,
2013-12-22 15:21:00,61.4,60.5,30.00,SW,229,0.0,1.0,97,0.06,,,0.71,Wunderground v.1.15,2013-12-22 20:21:00,
2013-12-22 15:22:00,61.4,60.5,30.01,West,278,1.0,2.0,97,0.05,,,0.71,Wunderground v.1.15,2013-12-22 20:22:00,
2013-12-22 15:23:00,61.4,60.5,30.01,SW,226,2.0,4.0,97,0.05,,,0.71,Wunderground v.1.15,2013-12-22 20:23:00,
2013-12-22 15:24:00,61.4,60.5,30.01,WSW,249,0.0,4.0,97,0.04,,,0.71,Wunderground v.1.15,2013-12-22 20:24:00,
2013-12-22 15:25:00,61.4,60.5,30.01,WSW,250,1.0,4.0,97,0.04,,,0.71,Wunderground v.1.15,2013-12-22 20:25:00,
2013-12-22 15:26:00,61.4,60.5,30.01,WSW,249,0.0,4.0,97,0.04,,,0.71,Wunderground v.1.15,2013-12-22 20:26:00,
2013-12-22 15:27:00,61.4,60.5,30.01,WSW,248,0.0,4.0,97,0.00,,,0.71,Wunderground v.1.15,2013-12-22 20:27:00,
2013-12-22 15:29:00,61.5,60.6,30.01,WSW,249,0.0,4.0,97,0.00,,,0.71,Wunderground v.1.15,2013-12-22 20:29:00,
2013-12-22 15:30:00,61.4,60.5,30.01,WSW,249,0.0,1.0,97,0.00,,,0.72,Wunderground v.1.15,2013-12-22 20:30:00,
2013-12-22 15:31:00,61.5,60.6,30.00,West,266,0.0,1.0,97,0.00,,,0.72,Wunderground v.1.15,2013-12-22 20:31:00,
2013-12-22 15:32:00,61.4,60.5,30.00,West,266,0.0,1.0,97,0.00,,,0.72,Wunderground v.1.15,2013-12-22 20:32:00,
2013-12-22 15:33:00,61.4,60.5,30.01,West,266,0.0,1.0,97,0.00,,,0.72,Wunderground v.1.15,2013-12-22 20:33:00,
2013-12-22 15:34:00,61.4,60.5,30.00,West,266,0.0,1.0,97,0.00,,,0.72,Wunderground v.1.15,2013-12-22 20:34:00,
2013-12-22 15:35:00,61.5,60.6,30.00,West,266,0.0,1.0,97,0.00,,,0.72,Wunderground v.1.15,2013-12-22 20:35:00,
2013-12-22 15:36:00,61.5,60.6,30.00,West,266,0.0,1.0,97,0.00,,,0.72,Wunderground v.1.15,2013-12-22 20:36:00,
2013-12-22 15:37:00,61.4,60.5,30.00,West,266,0.0,1.0,97,0.00,,,0.72,Wunderground v.1.15,2013-12-22 20:37:00,
2013-12-22 15:38:00,61.5,60.6,30.00,West,266,0.0,1.0,97,0.00,,,0.72,Wunderground v.1.15,2013-12-22 20:38:00,
2013-12-22 15:40:00,61.5,60.6,30.00,West,265,0.0,0.0,97,0.00,,,0.72,Wunderground v.1.15,2013-12-22 20:40:00,
2013-12-22 15:41:00,61.5,60.6,30.00,West,266,0.0,0.0,97,0.00,,,0.72,Wunderground v.1.15,2013-12-22 20:41:00,
2013-12-22 15:42:00,61.5,60.6,30.00,West,266,0.0,0.0,97,0.00,,,0.72,Wunderground v.1.15,2013-12-22 20:42:00,
2013-12-22 15:44:00,61.5,60.6,30.00,West,266,0.0,0.0,97,0.00,,,0.72,Wunderground v.1.15,2013-12-22 20:44:00,
2013-12-22 15:45:00,61.5,60.6,30.00,West,266,0.0,0.0,97,0.00,,,0.72,Wunderground v.1.15,2013-12-22 20:45:00,
2013-12-22 15:46:00,61.5,60.6,30.00,West,266,0.0,0.0,97,0.00,,,0.72,Wunderground v.1.15,2013-12-22 20:46:00,
2013-12-22 15:47:00,61.5,60.6,30.00,West,266,0.0,0.0,97,0.00,,,0.72,Wunderground v.1.15,2013-12-22 20:47:00,
2013-12-22 15:49:00,61.5,60.6,30.00,West,265,0.0,0.0,97,0.00,,,0.72,Wunderground v.1.15,2013-12-22 20:49:00,
2013-12-22 15:50:00,61.5,60.6,30.00,West,266,0.0,0.0,97,0.00,,,0.72,Wunderground v.1.15,2013-12-22 20:50:00,
2013-12-22 15:51:00,61.5,60.6,30.00,West,265,0.0,0.0,97,0.00,,,0.72,Wunderground v.1.15,2013-12-22 20:51:00,
2013-12-22 15:52:00,61.5,60.6,30.00,West,266,0.0,0.0,97,0.00,,,0.72,Wunderground v.1.15,2013-12-22 20:52:00,
2013-12-22 15:54:00,61.5,60.6,30.00,West,266,0.0,0.0,97,0.00,,,0.72,Wunderground v.1.15,2013-12-22 20:54:00,
2013-12-22 15:56:00,61.5,60.6,30.00,West,266,0.0,0.0,97,0.00,,,0.72,Wunderground v.1.15,2013-12-22 20:56:00,
2013-12-22 15:57:00,61.6,61.0,30.00,West,266,0.0,0.0,98,0.00,,,0.72,Wunderground v.1.15,2013-12-22 20:57:00,
2013-12-22 15:58:00,61.6,61.0,30.00,West,266,0.0,0.0,98,0.00,,,0.72,Wunderground v.1.15,2013-12-22 20:58:00,
2013-12-22 16:00:00,61.6,61.0,29.99,West,266,0.0,0.0,98,0.00,,,0.72,Wunderground v.1.15,2013-12-22 21:00:00,
2013-12-22 16:01:00,61.6,61.0,30.00,West,266,0.0,0.0,98,0.00,,,0.72,Wunderground v.1.15,2013-12-22 21:01:00,
2013-12-22 16:02:00,61.6,61.0,30.00,West,265,0.0,0.0,98,0.00,,,0.72,Wunderground v.1.15,2013-12-22 21:02:00,
2013-12-22 16:03:00,61.5,60.9,30.00,West,265,0.0,0.0,98,0.00,,,0.72,Wunderground v.1.15,2013-12-22 21:03:00,
2013-12-22 16:05:00,61.5,60.9,30.00,West,266,0.0,0.0,98,0.00,,,0.72,Wunderground v.1.15,2013-12-22 21:05:00,
2013-12-22 16:06:00,61.5,60.9,30.00,West,266,0.0,0.0,98,0.00,,,0.72,Wunderground v.1.15,2013-12-22 21:06:00,
2013-12-22 16:07:00,61.5,60.9,29.99,West,266,0.0,0.0,98,0.00,,,0.72,Wunderground v.1.15,2013-12-22 21:07:00,
2013-12-22 16:08:00,61.5,60.9,29.99,West,265,0.0,0.0,98,0.00,,,0.72,Wunderground v.1.15,2013-12-22 21:08:00,
2013-12-22 16:09:00,61.5,60.9,29.99,West,265,0.0,0.0,98,0.00,,,0.72,Wunderground v.1.15,2013-12-22 21:09:00,
2013-12-22 16:10:00,61.5,60.9,30.00,West,266,0.0,0.0,98,0.00,,,0.72,Wunderground v.1.15,2013-12-22 21:10:00,
2013-12-22 16:11:00,61.4,60.8,30.00,West,265,0.0,0.0,98,0.00,,,0.72,Wunderground v.1.15,2013-12-22 21:11:00,
2013-12-22 16:12:00,61.4,60.8,29.99,West,266,0.0,0.0,98,0.00,,,0.72,Wunderground v.1.15,2013-12-22 21:12:00,
2013-12-22 16:13:00,61.4,60.8,29.99,West,266,0.0,0.0,98,0.00,,,0.72,Wunderground v.1.15,2013-12-22 21:13:00,
2013-12-22 16:14:00,61.4,60.8,29.99,West,266,0.0,0.0,98,0.00,,,0.72,Wunderground v.1.15,2013-12-22 21:14:00,
2013-12-22 16:15:00,61.4,60.8,30.00,West,265,0.0,0.0,98,0.00,,,0.72,Wunderground v.1.15,2013-12-22 21:15:00,
2013-12-22 16:17:00,61.4,60.8,30.00,West,265,0.0,0.0,98,0.00,,,0.72,Wunderground v.1.15,2013-12-22 21:17:00,
2013-12-22 16:18:00,61.3,60.7,30.00,West,265,0.0,0.0,98,0.00,,,0.72,Wunderground v.1.15,2013-12-22 21:18:00,
2013-12-22 16:19:00,61.3,60.7,30.00,West,266,0.0,0.0,98,0.00,,,0.72,Wunderground v.1.15,2013-12-22 21:19:00,
2013-12-22 16:20:00,61.3,60.7,30.00,West,265,0.0,0.0,98,0.00,,,0.72,Wunderground v.1.15,2013-12-22 21:20:00,
2013-12-22 16:22:00,61.3,60.7,30.01,West,266,0.0,0.0,98,0.00,,,0.72,Wunderground v.1.15,2013-12-22 21:22:00,
2013-12-22 16:24:00,61.2,60.6,30.00,West,266,0.0,0.0,98,0.00,,,0.72,Wunderground v.1.15,2013-12-22 21:24:00,
2013-12-22 16:25:00,61.2,60.6,30.00,West,266,0.0,0.0,98,0.00,,,0.72,Wunderground v.1.15,2013-12-22 21:25:00,
2013-12-22 16:27:00,61.2,60.6,30.00,West,266,0.0,0.0,98,0.00,,,0.72,Wunderground v.1.15,2013-12-22 21:27:00,
2013-12-22 16:28:00,61.2,60.6,30.00,West,265,0.0,0.0,98,0.00,,,0.72,Wunderground v.1.15,2013-12-22 21:28:00,
2013-12-22 16:29:00,61.2,60.6,30.01,West,265,0.0,0.0,98,0.00,,,0.72,Wunderground v.1.15,2013-12-22 21:29:00,
2013-12-22 16:30:00,61.1,60.5,30.01,West,266,0.0,0.0,98,0.00,,,0.72,Wunderground v.1.15,2013-12-22 21:30:00,
2013-12-22 16:33:00,61.1,60.5,30.01,West,266,0.0,0.0,98,0.00,,,0.72,Wunderground v.1.15,2013-12-22 21:33:00,
2013-12-22 16:34:00,61.1,60.5,30.01,West,265,0.0,0.0,98,0.00,,,0.72,Wunderground v.1.15,2013-12-22 21:34:00,
2013-12-22 16:35:00,61.1,60.5,30.01,West,265,0.0,0.0,98,0.00,,,0.72,Wunderground v.1.15,2013-12-22 21:35:00,
2013-12-22 16:36:00,61.1,60.5,30.01,West,266,0.0,0.0,98,0.00,,,0.72,Wunderground v.1.15,2013-12-22 21:36:00,
2013-12-22 16:38:00,61.0,60.4,30.01,West,265,0.0,0.0,98,0.00,,,0.72,Wunderground v.1.15,2013-12-22 21:38:00,
2013-12-22 16:40:00,61.0,60.4,30.01,West,266,0.0,0.0,98,0.00,,,0.72,Wunderground v.1.15,2013-12-22 21:40:00,
2013-12-22 16:41:00,61.0,60.4,30.01,West,265,0.0,0.0,98,0.00,,,0.72,Wunderground v.1.15,2013-12-22 21:41:00,
2013-12-22 16:43:00,61.0,60.4,30.00,West,266,0.0,0.0,98,0.00,,,0.72,Wunderground v.1.15,2013-12-22 21:43:00,
2013-12-22 16:45:00,61.0,60.4,30.00,West,266,0.0,0.0,98,0.00,,,0.72,Wunderground v.1.15,2013-12-22 21:45:00,
2013-12-22 16:46:00,61.0,60.4,30.00,West,265,0.0,0.0,98,0.00,,,0.72,Wunderground v.1.15,2013-12-22 21:46:00,
2013-12-22 16:48:00,60.9,60.3,30.00,West,266,0.0,0.0,98,0.00,,,0.72,Wunderground v.1.15,2013-12-22 21:48:00,
2013-12-22 16:50:00,60.9,60.3,30.00,West,266,0.0,0.0,98,0.00,,,0.72,Wunderground v.1.15,2013-12-22 21:50:00,
2013-12-22 16:51:00,60.8,60.2,30.00,West,266,0.0,0.0,98,0.00,,,0.72,Wunderground v.1.15,2013-12-22 21:51:00,
2013-12-22 16:54:00,60.8,60.2,30.00,West,266,0.0,0.0,98,0.00,,,0.73,Wunderground v.1.15,2013-12-22 21:54:00,
2013-12-22 17:03:00,60.8,60.2,30.00,West,266,0.0,0.0,98,0.00,,,0.73,Wunderground v.1.15,2013-12-22 22:03:00,
2013-12-22 17:08:00,60.7,60.1,30.01,West,265,0.0,0.0,98,0.00,,,0.73,Wunderground v.1.15,2013-12-22 22:08:00,
2013-12-22 17:09:00,60.7,60.1,30.00,West,266,0.0,0.0,98,0.00,,,0.73,Wunderground v.1.15,2013-12-22 22:09:00,
2013-12-22 17:13:00,60.7,60.1,30.02,West,266,0.0,0.0,98,0.00,,,0.73,Wunderground v.1.15,2013-12-22 22:13:00,
2013-12-22 17:14:00,60.7,60.1,30.02,West,266,0.0,0.0,98,0.00,,,0.73,Wunderground v.1.15,2013-12-22 22:14:00,
2013-12-22 17:42:00,61.0,60.7,30.03,SW,229,0.0,1.0,99,0.07,,,0.75,Wunderground v.1.15,2013-12-22 22:42:00,
2013-12-22 17:43:00,61.0,60.7,30.03,SW,229,0.0,1.0,99,0.07,,,0.75,Wunderground v.1.15,2013-12-22 22:43:00,
2013-12-22 17:47:00,61.0,60.7,30.03,SW,229,0.0,1.0,99,0.08,,,0.76,Wunderground v.1.15,2013-12-22 22:47:00,
2013-12-22 17:48:00,61.0,60.7,30.03,SW,229,0.0,1.0,99,0.08,,,0.76,Wunderground v.1.15,2013-12-22 22:48:00,
2013-12-22 17:50:00,61.1,60.8,30.03,SW,229,0.0,0.0,99,0.08,,,0.76,Wunderground v.1.15,2013-12-22 22:50:00,
2013-12-22 17:52:00,61.2,60.9,30.04,SW,215,0.0,3.0,99,0.11,,,0.77,Wunderground v.1.15,2013-12-22 22:52:00,
2013-12-22 17:53:00,61.2,60.9,30.04,SW,215,0.0,3.0,99,0.11,,,0.77,Wunderground v.1.15,2013-12-22 22:53:00,
2013-12-22 17:54:00,61.2,60.9,30.04,SW,215,1.0,3.0,99,0.11,,,0.77,Wunderground v.1.15,2013-12-22 22:54:00,
2013-12-22 17:55:00,61.2,60.9,30.04,SW,215,0.0,3.0,99,0.11,,,0.77,Wunderground v.1.15,2013-12-22 22:55:00,
2013-12-22 17:57:00,61.3,61.0,30.05,SSW,203,0.0,3.0,99,0.09,,,0.78,Wunderground v.1.15,2013-12-22 22:57:00,
2013-12-22 17:58:00,61.3,61.0,30.05,SSW,203,0.0,3.0,99,0.09,,,0.78,Wunderground v.1.15,2013-12-22 22:58:00,
2013-12-22 17:59:00,61.3,61.0,30.05,SSW,212,0.0,3.0,99,0.09,,,0.78,Wunderground v.1.15,2013-12-22 22:59:00,
2013-12-22 18:00:00,61.3,61.0,30.05,SSW,195,0.0,0.0,99,0.20,,,0.79,Wunderground v.1.15,2013-12-22 23:00:00,
2013-12-22 18:03:00,61.4,61.1,30.05,SW,214,0.0,2.0,99,0.19,,,0.79,Wunderground v.1.15,2013-12-22 23:03:00,
2013-12-22 18:04:00,61.4,61.1,30.05,SSW,211,1.0,2.0,99,0.17,,,0.80,Wunderground v.1.15,2013-12-22 23:04:00,
2013-12-22 18:05:00,61.5,61.2,30.05,WSW,248,1.0,2.0,99,0.17,,,0.80,Wunderground v.1.15,2013-12-22 23:05:00,
2013-12-22 18:08:00,61.6,61.3,30.05,SW,225,0.0,3.0,99,0.17,,,0.81,Wunderground v.1.15,2013-12-22 23:08:00,
2013-12-22 18:09:00,61.6,61.3,30.05,SW,225,0.0,3.0,99,0.17,,,0.81,Wunderground v.1.15,2013-12-22 23:09:00,
2013-12-22 18:10:00,61.6,61.3,30.05,SW,219,2.0,2.0,99,0.17,,,0.81,Wunderground v.1.15,2013-12-22 23:10:00,
2013-12-22 18:13:00,61.7,61.4,30.05,SW,230,0.0,3.0,99,0.14,,,0.82,Wunderground v.1.15,2013-12-22 23:13:00,
2013-12-22 18:14:00,61.7,61.4,30.05,SW,232,0.0,3.0,99,0.14,,,0.82,Wunderground v.1.15,2013-12-22 23:14:00,
2013-12-22 18:15:00,61.7,61.4,30.04,SSE,150,0.0,3.0,99,0.16,,,0.83,Wunderground v.1.15,2013-12-22 23:15:00,
2013-12-22 18:18:00,61.7,61.4,30.03,ESE,103,1.0,3.0,99,0.15,,,0.83,Wunderground v.1.15,2013-12-22 23:18:00,
2013-12-22 18:19:00,61.7,61.4,30.03,ESE,103,1.0,3.0,99,0.15,,,0.83,Wunderground v.1.15,2013-12-22 23:19:00,
2013-12-22 18:20:00,61.7,61.4,30.02,ESE,103,0.0,1.0,99,0.13,,,0.84,Wunderground v.1.15,2013-12-22 23:20:00,
2013-12-22 18:24:00,61.7,61.4,30.02,ESE,105,0.0,1.0,99,0.13,,,0.84,Wunderground v.1.15,2013-12-22 23:24:00,
2013-12-22 18:25:00,61.8,61.5,30.02,SE,141,1.0,1.0,99,0.11,,,0.85,Wunderground v.1.15,2013-12-22 23:25:00,
2013-12-22 18:26:00,61.8,61.5,30.02,SE,139,0.0,1.0,99,0.11,,,0.85,Wunderground v.1.15,2013-12-22 23:26:00,
2013-12-22 18:29:00,61.8,61.5,30.02,SSE,153,0.0,1.0,99,0.11,,,0.85,Wunderground v.1.15,2013-12-22 23:29:00,
2013-12-22 18:30:00,61.8,61.5,30.02,SSE,158,0.0,1.0,99,0.14,,,0.86,Wunderground v.1.15,2013-12-22 23:30:00,
2013-12-22 18:31:00,61.8,61.5,30.02,SSE,158,0.0,1.0,99,0.14,,,0.86,Wunderground v.1.15,2013-12-22 23:31:00,
2013-12-22 18:35:00,61.8,61.5,30.01,SSE,167,0.0,1.0,99,0.13,,,0.87,Wunderground v.1.15,2013-12-22 23:35:00,
2013-12-22 18:36:00,61.8,61.5,30.01,SSE,168,0.0,1.0,99,0.13,,,0.87,Wunderground v.1.15,2013-12-22 23:36:00,
2013-12-22 18:40:00,61.8,61.5,30.01,South,190,0.0,0.0,99,0.11,,,0.88,Wunderground v.1.15,2013-12-22 23:40:00,
2013-12-22 18:41:00,61.8,61.5,30.01,South,190,0.0,0.0,99,0.11,,,0.88,Wunderground v.1.15,2013-12-22 23:41:00,
2013-12-22 18:45:00,61.9,61.6,30.01,SE,140,1.0,1.0,99,0.11,,,0.88,Wunderground v.1.15,2013-12-22 23:45:00,
2013-12-22 18:46:00,61.9,61.6,30.01,SE,139,0.0,1.0,99,0.09,,,0.88,Wunderground v.1.15,2013-12-22 23:46:00,
2013-12-22 18:50:00,61.9,61.6,30.01,SSE,156,0.0,1.0,99,0.07,,,0.89,Wunderground v.1.15,2013-12-22 23:50:00,
2013-12-22 18:51:00,61.9,61.6,30.01,SSE,157,0.0,1.0,99,0.07,,,0.89,Wunderground v.1.15,2013-12-22 23:51:00,
2013-12-22 18:52:00,61.9,61.6,30.01,SSE,156,0.0,1.0,99,0.07,,,0.89,Wunderground v.1.15,2013-12-22 23:52:00,
2013-12-22 18:55:00,62.0,61.7,30.02,South,187,0.0,2.0,99,0.07,,,0.89,Wunderground v.1.15,2013-12-22 23:55:00,
2013-12-22 18:56:00,62.0,61.7,30.02,South,188,1.0,2.0,99,0.07,,,0.89,Wunderground v.1.15,2013-12-22 23:56:00,
2013-12-22 18:57:00,62.0,61.7,30.01,ENE,72,3.0,3.0,99,0.06,,,0.89,Wunderground v.1.15,2013-12-22 23:57:00,
2013-12-22 19:00:00,62.0,61.7,30.01,SSW,203,0.0,1.0,99,0.06,,,0.90,Wunderground v.1.15,2013-12-23 00:00:00,
2013-12-22 19:01:00,62.1,61.8,30.01,SSW,203,0.0,1.0,99,0.06,,,0.90,Wunderground v.1.15,2013-12-23 00:01:00,
2013-12-22 19:02:00,62.1,61.8,30.01,SSW,204,0.0,1.0,99,0.16,,,0.91,Wunderground v.1.15,2013-12-23 00:02:00,
2013-12-22 19:05:00,62.1,61.8,30.00,SW,229,0.0,2.0,99,0.14,,,0.91,Wunderground v.1.15,2013-12-23 00:05:00,
2013-12-22 19:06:00,62.1,61.8,30.00,SW,229,0.0,2.0,99,0.12,,,0.91,Wunderground v.1.15,2013-12-23 00:06:00,
2013-12-22 19:07:00,62.1,61.8,30.00,SW,224,1.0,2.0,99,0.10,,,0.91,Wunderground v.1.15,2013-12-23 00:07:00,
2013-12-22 19:11:00,62.1,61.8,30.00,SSW,207,0.0,1.0,99,0.09,,,0.92,Wunderground v.1.15,2013-12-23 00:11:00,
2013-12-22 19:12:00,62.1,61.8,30.00,SSW,207,0.0,1.0,99,0.09,,,0.92,Wunderground v.1.15,2013-12-23 00:12:00,
2013-12-22 19:14:00,62.1,61.8,30.00,SSW,207,0.0,1.0,99,0.09,,,0.92,Wunderground v.1.15,2013-12-23 00:14:00,
2013-12-22 19:16:00,62.1,61.8,30.00,SW,226,0.0,1.0,99,0.07,,,0.92,Wunderground v.1.15,2013-12-23 00:16:00,
2013-12-22 19:17:00,62.1,61.8,30.00,SW,226,1.0,1.0,99,0.06,,,0.92,Wunderground v.1.15,2013-12-23 00:17:00,
2013-12-22 19:18:00,62.1,61.8,30.00,SW,217,1.0,1.0,99,0.06,,,0.92,Wunderground v.1.15,2013-12-23 00:18:00,
2013-12-22 19:19:00,62.1,61.8,30.01,WNW,302,1.0,2.0,99,0.05,,,0.92,Wunderground v.1.15,2013-12-23 00:19:00,
2013-12-22 19:21:00,62.2,61.9,30.01,SSW,203,1.0,2.0,99,0.04,,,0.92,Wunderground v.1.15,2013-12-23 00:21:00,
2013-12-22 19:22:00,62.2,61.9,30.01,SSW,203,0.0,2.0,99,0.04,,,0.92,Wunderground v.1.15,2013-12-23 00:22:00,
2013-12-22 19:23:00,62.2,61.9,30.01,SSW,207,0.0,2.0,99,0.04,,,0.93,Wunderground v.1.15,2013-12-23 00:23:00,
2013-12-22 19:24:00,62.2,61.9,30.01,South,187,2.0,2.0,99,0.04,,,0.93,Wunderground v.1.15,2013-12-23 00:24:00,
2013-12-22 19:26:00,62.2,61.9,30.01,South,191,0.0,2.0,99,0.04,,,0.93,Wunderground v.1.15,2013-12-23 00:26:00,
2013-12-22 19:27:00,62.2,61.9,30.01,South,191,0.0,2.0,99,0.04,,,0.93,Wunderground v.1.15,2013-12-23 00:27:00,
2013-12-22 19:28:00,62.2,61.9,30.01,South,191,0.0,2.0,99,0.04,,,0.93,Wunderground v.1.15,2013-12-23 00:28:00,
2013-12-22 19:29:00,62.2,61.9,30.01,SW,226,0.0,2.0,99,0.04,,,0.93,Wunderground v.1.15,2013-12-23 00:29:00,
2013-12-22 19:30:00,62.2,61.9,30.01,SW,226,0.0,1.0,99,0.04,,,0.93,Wunderground v.1.15,2013-12-23 00:30:00,
2013-12-22 19:32:00,62.2,61.9,30.01,SSE,160,0.0,3.0,99,0.04,,,0.93,Wunderground v.1.15,2013-12-23 00:32:00,
2013-12-22 19:33:00,62.3,62.0,30.02,SSE,160,2.0,4.0,99,0.04,,,0.93,Wunderground v.1.15,2013-12-23 00:33:00,
2013-12-22 19:35:00,62.3,62.0,30.02,SSE,161,0.0,4.0,99,0.04,,,0.93,Wunderground v.1.15,2013-12-23 00:35:00,
2013-12-22 19:37:00,62.3,62.0,30.02,South,183,0.0,4.0,99,0.04,,,0.93,Wunderground v.1.15,2013-12-23 00:37:00,
2013-12-22 19:39:00,62.4,62.1,30.01,SSE,158,0.0,4.0,99,0.04,,,0.93,Wunderground v.1.15,2013-12-23 00:39:00,
2013-12-22 19:40:00,62.4,62.1,30.01,SSE,158,0.0,1.0,99,0.00,,,0.93,Wunderground v.1.15,2013-12-23 00:40:00,
2013-12-22 19:41:00,62.4,62.1,30.01,SW,225,1.0,1.0,99,0.00,,,0.93,Wunderground v.1.15,2013-12-23 00:41:00,
2013-12-22 19:42:00,62.3,62.0,30.01,SSW,200,0.0,2.0,99,0.00,,,0.93,Wunderground v.1.15,2013-12-23 00:42:00,
2013-12-22 19:43:00,62.4,62.1,30.01,SSW,201,0.0,2.0,99,0.00,,,0.93,Wunderground v.1.15,2013-12-23 00:43:00,
2013-12-22 19:44:00,62.4,62.1,30.02,SSW,200,0.0,2.0,99,0.00,,,0.93,Wunderground v.1.15,2013-12-23 00:44:00,
2013-12-22 19:45:00,62.4,62.1,30.01,NE,39,0.0,2.0,99,0.00,,,0.93,Wunderground v.1.15,2013-12-23 00:45:00,
2013-12-22 19:46:00,62.4,62.1,30.01,NE,39,0.0,2.0,99,0.00,,,0.93,Wunderground v.1.15,2013-12-23 00:46:00,
2013-12-22 19:47:00,62.4,62.1,30.01,NE,39,0.0,2.0,99,0.00,,,0.93,Wunderground v.1.15,2013-12-23 00:47:00,
2013-12-22 19:49:00,62.3,62.0,30.01,West,264,1.0,2.0,99,0.00,,,0.93,Wunderground v.1.15,2013-12-23 00:49:00,
2013-12-22 19:50:00,62.4,62.1,30.01,SW,233,1.0,1.0,99,0.00,,,0.93,Wunderground v.1.15,2013-12-23 00:50:00,
2013-12-22 19:51:00,62.4,62.1,30.01,SW,225,0.0,2.0,99,0.00,,,0.93,Wunderground v.1.15,2013-12-23 00:51:00,
2013-12-22 19:52:00,62.4,62.1,30.00,WNW,288,0.0,2.0,99,0.00,,,0.93,Wunderground v.1.15,2013-12-23 00:52:00,
2013-12-22 19:54:00,62.4,62.1,30.00,WNW,288,0.0,2.0,99,0.00,,,0.93,Wunderground v.1.15,2013-12-23 00:54:00,
2013-12-22 19:55:00,62.4,62.1,30.00,WNW,288,0.0,2.0,99,0.00,,,0.93,Wunderground v.1.15,2013-12-23 00:55:00,
2013-12-22 19:56:00,62.4,62.1,30.00,WNW,288,0.0,2.0,99,0.00,,,0.93,Wunderground v.1.15,2013-12-23 00:56:00,
2013-12-22 19:58:00,62.4,62.1,30.01,ESE,115,0.0,3.0,99,0.00,,,0.94,Wunderground v.1.15,2013-12-23 00:58:00,
2013-12-22 19:59:00,62.5,62.2,30.01,North,355,4.0,4.0,99,0.00,,,0.94,Wunderground v.1.15,2013-12-23 00:59:00,
2013-12-22 20:00:00,62.5,62.2,30.01,East,81,0.0,2.0,99,0.00,,,0.94,Wunderground v.1.15,2013-12-23 01:00:00,
2013-12-22 20:01:00,62.5,62.2,30.01,East,81,1.0,2.0,99,0.00,,,0.94,Wunderground v.1.15,2013-12-23 01:01:00,
2013-12-22 20:03:00,62.5,62.2,30.01,East,81,0.0,2.0,99,0.00,,,0.94,Wunderground v.1.15,2013-12-23 01:03:00,
2013-12-22 20:04:00,62.5,62.2,30.01,East,82,0.0,2.0,99,0.00,,,0.94,Wunderground v.1.15,2013-12-23 01:04:00,
2013-12-22 20:05:00,62.5,62.2,30.00,East,82,0.0,2.0,99,0.00,,,0.94,Wunderground v.1.15,2013-12-23 01:05:00,
2013-12-22 20:06:00,62.5,62.2,30.00,East,82,0.0,2.0,99,0.00,,,0.94,Wunderground v.1.15,2013-12-23 01:06:00,
2013-12-22 20:09:00,62.5,62.2,30.00,ESE,117,0.0,4.0,99,0.00,,,0.94,Wunderground v.1.15,2013-12-23 01:09:00,
2013-12-22 20:10:00,62.5,62.2,30.00,ESE,118,1.0,1.0,99,0.00,,,0.94,Wunderground v.1.15,2013-12-23 01:10:00,
2013-12-22 20:11:00,62.5,62.2,30.00,ESE,117,1.0,1.0,99,0.00,,,0.94,Wunderground v.1.15,2013-12-23 01:11:00,
2013-12-22 20:14:00,62.5,62.2,30.00,ESE,117,0.0,1.0,99,0.00,,,0.94,Wunderground v.1.15,2013-12-23 01:14:00,
2013-12-22 20:16:00,62.5,62.2,30.00,ESE,117,0.0,1.0,99,0.00,,,0.94,Wunderground v.1.15,2013-12-23 01:16:00,
2013-12-22 20:19:00,62.5,62.2,30.00,ESE,117,0.0,1.0,99,0.00,,,0.94,Wunderground v.1.15,2013-12-23 01:19:00,
2013-12-22 20:20:00,62.5,62.2,30.00,ESE,117,0.0,0.0,99,0.00,,,0.94,Wunderground v.1.15,2013-12-23 01:20:00,
2013-12-22 20:21:00,62.5,62.2,29.99,SW,218,0.0,0.0,99,0.00,,,0.94,Wunderground v.1.15,2013-12-23 01:21:00,
2013-12-22 20:22:00,62.5,62.2,29.99,SW,218,1.0,1.0,99,0.00,,,0.94,Wunderground v.1.15,2013-12-23 01:22:00,
2013-12-22 20:24:00,62.5,62.2,29.99,SW,218,0.0,1.0,99,0.00,,,0.94,Wunderground v.1.15,2013-12-23 01:24:00,
2013-12-22 20:25:00,62.6,62.3,29.99,South,186,0.0,1.0,99,0.00,,,0.94,Wunderground v.1.15,2013-12-23 01:25:00,
2013-12-22 20:26:00,62.6,62.3,29.99,SSW,203,0.0,1.0,99,0.00,,,0.94,Wunderground v.1.15,2013-12-23 01:26:00,
2013-12-22 20:27:00,62.6,62.3,30.00,SW,235,1.0,1.0,99,0.00,,,0.94,Wunderground v.1.15,2013-12-23 01:27:00,
2013-12-22 20:29:00,62.6,62.3,30.00,SE,142,0.0,2.0,99,0.00,,,0.94,Wunderground v.1.15,2013-12-23 01:29:00,
2013-12-22 20:30:00,62.6,62.3,30.00,SE,143,0.0,0.0,99,0.00,,,0.94,Wunderground v.1.15,2013-12-23 01:30:00,
2013-12-22 20:31:00,62.6,62.3,30.00,SE,140,0.0,0.0,99,0.00,,,0.94,Wunderground v.1.15,2013-12-23 01:31:00,
2013-12-22 20:32:00,62.6,62.3,30.00,SE,139,0.0,0.0,99,0.00,,,0.94,Wunderground v.1.15,2013-12-23 01:32:00,
2013-12-22 20:34:00,62.6,62.3,30.00,SW,216,0.0,0.0,99,0.00,,,0.94,Wunderground v.1.15,2013-12-23 01:34:00,
2013-12-22 20:35:00,62.6,62.3,30.00,SSW,207,1.0,3.0,99,0.00,,,0.95,Wunderground v.1.15,2013-12-23 01:35:00,
2013-12-22 20:36:00,62.6,62.3,30.00,SSW,208,0.0,3.0,99,0.00,,,0.95,Wunderground v.1.15,2013-12-23 01:36:00,
2013-12-22 20:37:00,62.6,62.3,30.00,SW,221,2.0,3.0,99,0.00,,,0.95,Wunderground v.1.15,2013-12-23 01:37:00,
2013-12-22 20:39:00,62.6,62.3,30.00,SSE,160,0.0,3.0,99,0.00,,,0.95,Wunderground v.1.15,2013-12-23 01:39:00,
2013-12-22 20:40:00,62.6,62.3,30.00,SSE,162,0.0,1.0,99,0.00,,,0.95,Wunderground v.1.15,2013-12-23 01:40:00,
2013-12-22 20:42:00,62.6,62.3,30.00,WSW,252,0.0,1.0,99,0.00,,,0.95,Wunderground v.1.15,2013-12-23 01:42:00,
2013-12-22 20:44:00,62.7,62.4,30.01,NNW,342,2.0,3.0,99,0.00,,,0.95,Wunderground v.1.15,2013-12-23 01:44:00,
2013-12-22 20:45:00,62.7,62.4,30.01,South,190,1.0,3.0,99,0.00,,,0.95,Wunderground v.1.15,2013-12-23 01:45:00,
2013-12-22 20:47:00,62.7,62.4,30.01,SSW,197,0.0,3.0,99,0.00,,,0.95,Wunderground v.1.15,2013-12-23 01:47:00,
2013-12-22 20:48:00,62.7,62.4,30.01,SSW,197,0.0,3.0,99,0.00,,,0.95,Wunderground v.1.15,2013-12-23 01:48:00,
2013-12-22 20:50:00,62.7,62.4,30.01,SSE,159,0.0,1.0,99,0.00,,,0.95,Wunderground v.1.15,2013-12-23 01:50:00,
2013-12-22 20:52:00,62.7,62.4,30.01,SSE,159,0.0,1.0,99,0.00,,,0.95,Wunderground v.1.15,2013-12-23 01:52:00,
2013-12-22 20:53:00,62.7,62.4,30.01,SSE,159,0.0,1.0,99,0.00,,,0.95,Wunderground v.1.15,2013-12-23 01:53:00,
2013-12-22 20:54:00,62.7,62.4,30.01,SSE,159,0.0,1.0,99,0.00,,,0.95,Wunderground v.1.15,2013-12-23 01:54:00,
2013-12-22 20:55:00,62.7,62.4,30.01,SSE,160,0.0,1.0,99,0.00,,,0.95,Wunderground v.1.15,2013-12-23 01:55:00,
2013-12-22 20:57:00,62.7,62.4,30.01,SSE,160,0.0,1.0,99,0.00,,,0.95,Wunderground v.1.15,2013-12-23 01:57:00,
2013-12-22 20:58:00,62.7,62.4,30.01,SSE,160,0.0,1.0,99,0.00,,,0.95,Wunderground v.1.15,2013-12-23 01:58:00,
2013-12-22 20:59:00,62.7,62.4,30.01,SSE,160,0.0,1.0,99,0.00,,,0.95,Wunderground v.1.15,2013-12-23 01:59:00,
2013-12-22 21:00:00,62.7,62.4,30.01,SSE,161,0.0,0.0,99,0.00,,,0.95,Wunderground v.1.15,2013-12-23 02:00:00,
2013-12-22 21:01:00,62.7,62.4,30.01,SSE,159,0.0,0.0,99,0.00,,,0.95,Wunderground v.1.15,2013-12-23 02:01:00,
2013-12-22 21:02:00,62.7,62.4,30.01,SSE,162,0.0,0.0,99,0.00,,,0.95,Wunderground v.1.15,2013-12-23 02:02:00,
2013-12-22 21:03:00,62.7,62.4,30.01,SSE,162,0.0,0.0,99,0.00,,,0.95,Wunderground v.1.15,2013-12-23 02:03:00,
2013-12-22 21:04:00,62.6,62.3,30.01,SSE,160,0.0,0.0,99,0.00,,,0.96,Wunderground v.1.15,2013-12-23 02:04:00,
2013-12-22 21:05:00,62.7,62.4,30.01,SSE,160,0.0,0.0,99,0.00,,,0.96,Wunderground v.1.15,2013-12-23 02:05:00,
2013-12-22 21:06:00,62.6,62.3,30.01,SSE,160,0.0,0.0,99,0.00,,,0.96,Wunderground v.1.15,2013-12-23 02:06:00,
2013-12-22 21:08:00,62.7,62.4,30.01,SSE,167,0.0,0.0,99,0.18,,,0.97,Wunderground v.1.15,2013-12-23 02:08:00,
2013-12-22 21:09:00,62.7,62.4,30.01,SSE,167,0.0,0.0,99,0.18,,,0.97,Wunderground v.1.15,2013-12-23 02:09:00,
2013-12-22 21:11:00,62.7,62.4,30.01,SSE,168,0.0,0.0,99,0.16,,,0.97,Wunderground v.1.15,2013-12-23 02:11:00,
2013-12-22 21:13:00,62.7,62.4,30.02,SSE,168,1.0,1.0,99,0.15,,,0.98,Wunderground v.1.15,2013-12-23 02:13:00,
2013-12-22 21:14:00,62.7,62.4,30.02,SW,215,1.0,1.0,99,0.15,,,0.98,Wunderground v.1.15,2013-12-23 02:14:00,
2013-12-22 21:15:00,62.7,62.4,30.02,SSW,200,1.0,2.0,99,0.14,,,0.98,Wunderground v.1.15,2013-12-23 02:15:00,
2013-12-22 21:16:00,62.7,62.4,30.02,SSW,200,0.0,2.0,99,0.12,,,0.98,Wunderground v.1.15,2013-12-23 02:16:00,
2013-12-22 21:18:00,62.7,62.4,30.03,SSW,212,1.0,2.0,99,0.08,,,0.98,Wunderground v.1.15,2013-12-23 02:18:00,
2013-12-22 21:20:00,62.7,62.4,30.02,SW,225,0.0,0.0,99,0.07,,,0.98,Wunderground v.1.15,2013-12-23 02:20:00,
2013-12-22 21:21:00,62.7,62.4,30.02,SW,225,0.0,1.0,99,0.06,,,0.98,Wunderground v.1.15,2013-12-23 02:21:00,
2013-12-22 21:24:00,62.6,62.3,30.02,SW,225,0.0,1.0,99,0.05,,,0.98,Wunderground v.1.15,2013-12-23 02:24:00,
2013-12-22 21:25:00,62.6,62.3,30.02,SW,225,0.0,1.0,99,0.04,,,0.98,Wunderground v.1.15,2013-12-23 02:25:00,
2013-12-22 21:26:00,62.6,62.3,30.02,SW,225,0.0,1.0,99,0.04,,,0.99,Wunderground v.1.15,2013-12-23 02:26:00,
2013-12-22 21:29:00,62.6,62.3,30.02,SW,225,0.0,0.0,99,0.04,,,0.99,Wunderground v.1.15,2013-12-23 02:29:00,
2013-12-22 21:30:00,62.6,62.3,30.02,SW,233,0.0,0.0,99,0.04,,,0.99,Wunderground v.1.15,2013-12-23 02:30:00,
2013-12-22 21:31:00,62.6,62.3,30.02,SW,232,0.0,0.0,99,0.12,,,1.00,Wunderground v.1.15,2013-12-23 02:31:00,
2013-12-22 21:32:00,62.6,62.3,30.02,SW,232,0.0,0.0,99,0.12,,,1.00,Wunderground v.1.15,2013-12-23 02:32:00,
2013-12-22 21:35:00,62.6,62.3,30.03,SW,221,2.0,2.0,99,0.12,,,1.00,Wunderground v.1.15,2013-12-23 02:35:00,
2013-12-22 21:36:00,62.6,62.3,30.03,SW,236,5.0,5.0,99,0.12,,,1.01,Wunderground v.1.15,2013-12-23 02:36:00,
2013-12-22 21:38:00,62.7,62.4,30.03,SSW,203,0.0,5.0,99,0.12,,,1.01,Wunderground v.1.15,2013-12-23 02:38:00,
2013-12-22 21:40:00,62.6,62.3,30.02,SSW,203,0.0,1.0,99,0.12,,,1.01,Wunderground v.1.15,2013-12-23 02:40:00,
2013-12-22 21:41:00,62.6,62.3,30.02,SSW,203,0.0,1.0,99,0.12,,,1.01,Wunderground v.1.15,2013-12-23 02:41:00,
2013-12-22 21:42:00,62.6,62.3,30.02,SSW,203,0.0,1.0,99,0.10,,,1.01,Wunderground v.1.15,2013-12-23 02:42:00,
2013-12-22 21:43:00,62.6,62.3,30.02,SSE,158,0.0,1.0,99,0.10,,,1.02,Wunderground v.1.15,2013-12-23 02:43:00,
2013-12-22 21:45:00,62.6,62.3,30.02,SSE,158,0.0,1.0,99,0.10,,,1.02,Wunderground v.1.15,2013-12-23 02:45:00,
2013-12-22 21:46:00,62.6,62.3,30.02,SSE,158,0.0,1.0,99,0.10,,,1.02,Wunderground v.1.15,2013-12-23 02:46:00,
2013-12-22 21:47:00,62.6,62.3,30.02,SW,229,1.0,1.0,99,0.10,,,1.02,Wunderground v.1.15,2013-12-23 02:47:00,
2013-12-22 21:48:00,62.6,62.3,30.02,SW,229,0.0,1.0,99,0.09,,,1.02,Wunderground v.1.15,2013-12-23 02:48:00,
2013-12-22 21:50:00,62.6,62.3,30.01,SE,131,0.0,0.0,99,0.08,,,1.03,Wunderground v.1.15,2013-12-23 02:50:00,
2013-12-22 21:51:00,62.6,62.3,30.01,West,281,0.0,2.0,99,0.08,,,1.03,Wunderground v.1.15,2013-12-23 02:51:00,
2013-12-22 21:52:00,62.6,62.3,30.01,West,281,0.0,2.0,99,0.08,,,1.03,Wunderground v.1.15,2013-12-23 02:52:00,
2013-12-22 21:53:00,62.6,62.3,30.01,West,279,0.0,2.0,99,0.15,,,1.03,Wunderground v.1.15,2013-12-23 02:53:00,
2013-12-22 21:55:00,62.5,62.2,30.01,West,281,0.0,2.0,99,0.15,,,1.04,Wunderground v.1.15,2013-12-23 02:55:00,
2013-12-22 21:56:00,62.5,62.2,30.00,West,281,0.0,2.0,99,0.15,,,1.04,Wunderground v.1.15,2013-12-23 02:56:00,
2013-12-22 21:57:00,62.5,62.2,30.00,West,281,0.0,2.0,99,0.15,,,1.04,Wunderground v.1.15,2013-12-23 02:57:00,
2013-12-22 21:58:00,62.5,62.2,30.00,West,281,0.0,2.0,99,0.13,,,1.04,Wunderground v.1.15,2013-12-23 02:58:00,
2013-12-22 21:59:00,62.5,62.2,30.00,ENE,72,1.0,2.0,99,0.12,,,1.05,Wunderground v.1.15,2013-12-23 02:59:00,
2013-12-22 22:00:00,62.6,62.3,29.99,SE,126,0.0,1.0,99,0.27,,,1.05,Wunderground v.1.15,2013-12-23 03:00:00,
2013-12-22 22:01:00,62.6,62.3,29.99,ESE,114,0.0,1.0,99,0.27,,,1.06,Wunderground v.1.15,2013-12-23 03:01:00,
2013-12-22 22:02:00,62.6,62.3,30.00,ESE,115,0.0,1.0,99,0.27,,,1.06,Wunderground v.1.15,2013-12-23 03:02:00,
2013-12-22 22:03:00,62.6,62.3,30.00,ESE,115,0.0,1.0,99,0.27,,,1.06,Wunderground v.1.15,2013-12-23 03:03:00,
2013-12-22 22:04:00,62.6,62.3,30.00,SW,229,0.0,1.0,99,0.25,,,1.07,Wunderground v.1.15,2013-12-23 03:04:00,
2013-12-22 22:06:00,62.6,62.3,30.00,SW,228,0.0,1.0,99,0.27,,,1.08,Wunderground v.1.15,2013-12-23 03:06:00,
2013-12-22 22:07:00,62.6,62.3,29.99,SW,228,0.0,1.0,99,0.27,,,1.08,Wunderground v.1.15,2013-12-23 03:07:00,
2013-12-22 22:08:00,62.6,62.3,29.99,SW,228,0.0,1.0,99,0.23,,,1.08,Wunderground v.1.15,2013-12-23 03:08:00,
2013-12-22 22:09:00,62.6,62.3,29.99,SW,228,0.0,1.0,99,0.18,,,1.09,Wunderground v.1.15,2013-12-23 03:09:00,
2013-12-22 22:11:00,62.6,62.3,29.99,SW,228,0.0,0.0,99,0.18,,,1.09,Wunderground v.1.15,2013-12-23 03:11:00,
2013-12-22 22:12:00,62.6,62.3,29.99,SW,229,0.0,0.0,99,0.22,,,1.10,Wunderground v.1.15,2013-12-23 03:12:00,
2013-12-22 22:13:00,62.5,62.2,29.99,SW,229,0.0,0.0,99,0.22,,,1.10,Wunderground v.1.15,2013-12-23 03:13:00,
2013-12-22 22:15:00,62.5,62.2,29.99,SW,215,0.0,0.0,99,0.17,,,1.10,Wunderground v.1.15,2013-12-23 03:15:00,
2013-12-22 22:16:00,62.5,62.2,29.99,SW,215,0.0,0.0,99,0.12,,,1.10,Wunderground v.1.15,2013-12-23 03:16:00,
2013-12-22 22:17:00,62.5,62.2,29.99,SW,216,0.0,0.0,99,0.10,,,1.10,Wunderground v.1.15,2013-12-23 03:17:00,
2013-12-22 22:18:00,62.5,62.2,30.00,SW,235,0.0,0.0,99,0.08,,,1.10,Wunderground v.1.15,2013-12-23 03:18:00,
2013-12-22 22:19:00,62.5,62.2,30.00,SW,235,0.0,0.0,99,0.08,,,1.10,Wunderground v.1.15,2013-12-23 03:19:00,
2013-12-22 22:20:00,62.6,62.3,30.00,SW,228,1.0,2.0,99,0.07,,,1.10,Wunderground v.1.15,2013-12-23 03:20:00,
2013-12-22 22:21:00,62.6,62.3,30.01,SSW,212,0.0,2.0,99,0.07,,,1.11,Wunderground v.1.15,2013-12-23 03:21:00,
2013-12-22 22:22:00,62.5,62.2,30.01,SSW,212,0.0,2.0,99,0.07,,,1.11,Wunderground v.1.15,2013-12-23 03:22:00,
2013-12-22 22:24:00,62.6,62.3,30.01,SSW,213,0.0,2.0,99,0.07,,,1.11,Wunderground v.1.15,2013-12-23 03:24:00,
2013-12-22 22:25:00,62.5,62.2,30.01,SSW,213,0.0,2.0,99,0.07,,,1.11,Wunderground v.1.15,2013-12-23 03:25:00,
2013-12-22 22:26:00,62.5,62.2,30.01,SSW,212,0.0,2.0,99,0.07,,,1.11,Wunderground v.1.15,2013-12-23 03:26:00,
2013-12-22 22:27:00,62.5,62.2,30.01,SW,214,0.0,2.0,99,0.07,,,1.11,Wunderground v.1.15,2013-12-23 03:27:00,
2013-12-22 22:29:00,62.5,62.2,30.00,SSW,203,1.0,2.0,99,0.07,,,1.11,Wunderground v.1.15,2013-12-23 03:29:00,
2013-12-22 22:30:00,62.5,62.2,30.00,SSW,203,0.0,0.0,99,0.06,,,1.11,Wunderground v.1.15,2013-12-23 03:30:00,
2013-12-22 22:31:00,62.5,62.2,30.00,SSW,203,0.0,0.0,99,0.06,,,1.11,Wunderground v.1.15,2013-12-23 03:31:00,
2013-12-22 22:33:00,62.6,62.3,30.00,SSW,203,0.0,1.0,99,0.05,,,1.12,Wunderground v.1.15,2013-12-23 03:33:00,
2013-12-22 22:34:00,62.5,62.2,30.00,South,173,0.0,1.0,99,0.05,,,1.12,Wunderground v.1.15,2013-12-23 03:34:00,
2013-12-22 22:35:00,62.5,62.2,30.00,South,174,1.0,1.0,99,0.05,,,1.12,Wunderground v.1.15,2013-12-23 03:35:00,
2013-12-22 22:51:00,62.6,62.3,30.00,SW,216,0.0,1.0,99,0.12,,,1.16,Wunderground v.1.15,2013-12-23 03:51:00,
2013-12-22 22:56:00,62.5,62.2,30.00,SSE,152,0.0,1.0,99,0.15,,,1.17,Wunderground v.1.15,2013-12-23 03:56:00,
2013-12-22 23:01:00,62.5,62.2,30.01,SSW,212,0.0,1.0,99,0.08,,,1.18,Wunderground v.1.15,2013-12-23 04:01:00,
2013-12-22 23:02:00,62.5,62.2,30.01,SSW,194,0.0,1.0,99,0.08,,,1.18,Wunderground v.1.15,2013-12-23 04:02:00,
2013-12-22 23:06:00,62.5,62.2,30.01,SW,222,0.0,2.0,99,0.13,,,1.19,Wunderground v.1.15,2013-12-23 04:06:00,
2013-12-22 23:07:00,62.5,62.2,30.01,SSW,200,0.0,2.0,99,0.13,,,1.19,Wunderground v.1.15,2013-12-23 04:07:00,
2013-12-22 23:08:00,62.5,62.2,30.01,East,91,1.0,4.0,99,0.18,,,1.20,Wunderground v.1.15,2013-12-23 04:08:00,
2013-12-22 23:11:00,62.5,62.2,30.01,SSW,193,1.0,3.0,99,0.20,,,1.21,Wunderground v.1.15,2013-12-23 04:11:00,
2013-12-22 23:12:00,62.5,62.2,30.01,SSW,212,0.0,3.0,99,0.20,,,1.21,Wunderground v.1.15,2013-12-23 04:12:00,
2013-12-22 23:13:00,62.5,62.2,30.01,SSW,197,1.0,3.0,99,0.19,,,1.21,Wunderground v.1.15,2013-12-23 04:13:00,
2013-12-22 23:16:00,62.4,62.1,30.03,SSW,211,1.0,3.0,99,0.15,,,1.22,Wunderground v.1.15,2013-12-23 04:16:00,
2013-12-22 23:17:00,62.4,62.1,30.03,SW,222,2.0,3.0,99,0.15,,,1.22,Wunderground v.1.15,2013-12-23 04:17:00,
2013-12-22 23:18:00,62.5,62.2,30.02,West,266,1.0,3.0,99,0.14,,,1.22,Wunderground v.1.15,2013-12-23 04:18:00,
2013-12-22 23:21:00,62.4,62.1,30.02,SW,226,4.0,5.0,99,0.10,,,1.23,Wunderground v.1.15,2013-12-23 04:21:00,
2013-12-22 23:22:00,62.5,62.2,30.02,SW,236,3.0,5.0,99,0.10,,,1.23,Wunderground v.1.15,2013-12-23 04:22:00,
2013-12-22 23:24:00,62.5,62.2,30.01,SSE,153,1.0,5.0,99,0.26,,,1.24,Wunderground v.1.15,2013-12-23 04:24:00,
2013-12-22 23:27:00,62.5,62.2,30.02,SSE,155,1.0,6.0,99,0.22,,,1.25,Wunderground v.1.15,2013-12-23 04:27:00,
2013-12-22 23:28:00,62.5,62.2,30.02,SSE,153,0.0,6.0,99,0.22,,,1.25,Wunderground v.1.15,2013-12-23 04:28:00,
2013-12-22 23:30:00,62.5,62.2,30.01,SSW,197,0.0,2.0,99,0.16,,,1.26,Wunderground v.1.15,2013-12-23 04:30:00,
2013-12-22 23:32:00,62.5,62.2,30.01,SSW,198,0.0,3.0,99,0.16,,,1.26,Wunderground v.1.15,2013-12-23 04:32:00,
2013-12-22 23:33:00,62.4,62.1,30.01,SW,229,1.0,3.0,99,0.16,,,1.26,Wunderground v.1.15,2013-12-23 04:33:00,
2013-12-22 23:35:00,62.4,62.1,30.02,SSW,201,2.0,3.0,99,0.11,,,1.27,Wunderground v.1.15,2013-12-23 04:35:00,
2013-12-22 23:37:00,62.4,62.1,30.02,SSE,160,1.0,3.0,99,0.11,,,1.27,Wunderground v.1.15,2013-12-23 04:37:00,
2013-12-22 23:38:00,62.4,62.1,30.03,SSW,208,1.0,4.0,99,0.11,,,1.27,Wunderground v.1.15,2013-12-23 04:38:00,
2013-12-22 23:39:00,62.4,62.1,30.03,SSW,205,0.0,4.0,99,0.11,,,1.27,Wunderground v.1.15,2013-12-23 04:39:00,
2013-12-22 23:41:00,62.4,62.1,30.03,West,263,1.0,2.0,99,0.10,,,1.27,Wunderground v.1.15,2013-12-23 04:41:00,
2013-12-22 23:42:00,62.4,62.1,30.03,SSE,156,3.0,3.0,99,0.08,,,1.28,Wunderground v.1.15,2013-12-23 04:42:00,
2013-12-22 23:43:00,62.4,62.1,30.02,SSW,211,1.0,3.0,99,0.08,,,1.28,Wunderground v.1.15,2013-12-23 04:43:00,
2013-12-22 23:45:00,62.4,62.1,30.02,South,191,1.0,4.0,99,0.08,,,1.28,Wunderground v.1.15,2013-12-23 04:45:00,
2013-12-22 23:46:00,62.4,62.1,30.02,SE,135,1.0,4.0,99,0.08,,,1.28,Wunderground v.1.15,2013-12-23 04:46:00,
2013-12-22 23:47:00,62.4,62.1,30.02,South,173,0.0,4.0,99,0.12,,,1.28,Wunderground v.1.15,2013-12-23 04:47:00,
2013-12-22 23:48:00,62.4,62.1,30.02,South,173,1.0,4.0,99,0.12,,,1.29,Wunderground v.1.15,2013-12-23 04:48:00,
2013-12-22 23:49:00,62.4,62.1,30.02,South,174,0.0,4.0,99,0.12,,,1.29,Wunderground v.1.15,2013-12-23 04:49:00,
2013-12-22 23:50:00,62.4,62.1,30.02,SSW,203,1.0,2.0,99,0.12,,,1.29,Wunderground v.1.15,2013-12-23 04:50:00,
2013-12-22 23:51:00,62.4,62.1,30.03,SSW,201,1.0,2.0,99,0.12,,,1.29,Wunderground v.1.15,2013-12-23 04:51:00,
2013-12-22 23:52:00,62.4,62.1,30.03,SW,229,6.0,6.0,99,0.12,,,1.29,Wunderground v.1.15,2013-12-23 04:52:00,
2013-12-22 23:54:00,62.3,62.0,30.03,SSW,205,1.0,7.0,99,0.11,,,1.30,Wunderground v.1.15,2013-12-23 04:54:00,
2013-12-22 23:55:00,62.4,62.1,30.03,SW,233,4.0,7.0,99,0.11,,,1.30,Wunderground v.1.15,2013-12-23 04:55:00,
2013-12-22 23:56:00,62.4,62.1,30.03,SW,229,1.0,7.0,99,0.11,,,1.30,Wunderground v.1.15,2013-12-23 04:56:00,
2013-12-22 23:57:00,62.3,62.0,30.03,SSE,159,1.0,7.0,99,0.11,,,1.30,Wunderground v.1.15,2013-12-23 04:57:00,
2013-12-22 23:59:00,62.4,62.1,30.03,SSW,201,1.0,7.0,99,0.11,,,1.31,Wunderground v.1.15,2013-12-23 04:59:00,